Time,TemperatureF,DewpointF,PressureIn,WindDirection,WindDirectionDegrees,WindSpeedMPH,WindSpeedGustMPH,Humidity,HourlyPrecipIn,Conditions,Clouds,dailyrainin,SoftwareType,DateUTC
2013-03-10 00:01:00,63.6,42.4,29.72,South,169,3.0,8.0,46,0.00,,,0.00,Wunderground v.1.15,2013-03-10 06:01:00,
2013-03-10 00:02:00,63.6,42.4,29.72,SSE,167,0.0,3.0,46,0.00,,,0.00,Wunderground v.1.15,2013-03-10 06:02:00,
2013-03-10 00:03:00,63.5,42.3,29.72,South,173,1.0,3.0,46,0.00,,,0.00,Wunderground v.1.15,2013-03-10 06:03:00,
2013-03-10 00:06:00,63.5,42.3,29.72,SSW,199,0.0,8.0,46,0.00,,,0.00,Wunderground v.1.15,2013-03-10 06:06:00,
2013-03-10 00:07:00,63.5,42.9,29.72,South,169,3.0,8.0,47,0.00,,,0.00,Wunderground v.1.15,2013-03-10 06:07:00,
2013-03-10 00:11:00,63.4,42.8,29.72,SSE,163,6.0,8.0,47,0.00,,,0.00,Wunderground v.1.15,2013-03-10 06:11:00,
2013-03-10 00:12:00,63.4,42.8,29.73,SSW,194,5.0,5.0,47,0.00,,,0.00,Wunderground v.1.15,2013-03-10 06:12:00,
2013-03-10 00:13:00,63.4,42.8,29.73,South,179,0.0,5.0,47,0.00,,,0.00,Wunderground v.1.15,2013-03-10 06:13:00,
2013-03-10 00:18:00,63.4,42.8,29.73,SSE,162,1.0,5.0,47,0.00,,,0.00,Wunderground v.1.15,2013-03-10 06:18:00,
2013-03-10 00:19:00,63.3,42.7,29.73,South,169,3.0,5.0,47,0.00,,,0.00,Wunderground v.1.15,2013-03-10 06:19:00,
2013-03-10 00:20:00,63.4,42.8,29.73,SSE,165,2.0,5.0,47,0.00,,,0.00,Wunderground v.1.15,2013-03-10 06:20:00,
2013-03-10 00:22:00,63.3,42.7,29.73,South,178,5.0,5.0,47,0.00,,,0.00,Wunderground v.1.15,2013-03-10 06:22:00,
2013-03-10 00:24:00,63.4,42.8,29.73,SSE,167,7.0,7.0,47,0.00,,,0.00,Wunderground v.1.15,2013-03-10 06:24:00,
2013-03-10 00:25:00,63.4,42.8,29.73,SSE,150,5.0,7.0,47,0.00,,,0.00,Wunderground v.1.15,2013-03-10 06:25:00,
2013-03-10 00:27:00,63.4,42.8,29.73,SSE,163,6.0,7.0,47,0.00,,,0.00,Wunderground v.1.15,2013-03-10 06:27:00,
2013-03-10 00:29:00,63.4,43.4,29.73,SSE,168,0.0,7.0,48,0.00,,,0.00,Wunderground v.1.15,2013-03-10 06:29:00,
2013-03-10 00:32:00,63.3,43.3,29.73,South,179,0.0,3.0,48,0.00,,,0.00,Wunderground v.1.15,2013-03-10 06:32:00,
2013-03-10 00:35:00,63.2,43.2,29.73,South,172,0.0,3.0,48,0.00,,,0.00,Wunderground v.1.15,2013-03-10 06:35:00,
2013-03-10 00:36:00,63.2,43.2,29.73,South,173,0.0,3.0,48,0.00,,,0.00,Wunderground v.1.15,2013-03-10 06:36:00,
2013-03-10 00:38:00,63.2,43.2,29.73,South,169,0.0,3.0,48,0.00,,,0.00,Wunderground v.1.15,2013-03-10 06:38:00,
2013-03-10 00:41:00,63.1,43.6,29.74,South,178,1.0,3.0,49,0.00,,,0.00,Wunderground v.1.15,2013-03-10 06:41:00,
2013-03-10 00:42:00,63.1,43.6,29.73,SSE,165,1.0,2.0,49,0.00,,,0.00,Wunderground v.1.15,2013-03-10 06:42:00,
2013-03-10 00:44:00,63.1,43.6,29.73,SSE,157,5.0,5.0,49,0.00,,,0.00,Wunderground v.1.15,2013-03-10 06:44:00,
2013-03-10 00:45:00,63.1,43.6,29.74,SSE,163,0.0,5.0,49,0.00,,,0.00,Wunderground v.1.15,2013-03-10 06:45:00,
2013-03-10 00:46:00,63.0,43.5,29.74,South,169,3.0,5.0,49,0.00,,,0.00,Wunderground v.1.15,2013-03-10 06:46:00,
2013-03-10 00:48:00,63.0,43.5,29.74,South,175,3.0,5.0,49,0.00,,,0.00,Wunderground v.1.15,2013-03-10 06:48:00,
2013-03-10 00:49:00,62.9,43.4,29.74,South,179,0.0,5.0,49,0.00,,,0.00,Wunderground v.1.15,2013-03-10 06:49:00,
2013-03-10 00:54:00,62.8,43.9,29.74,SSE,157,1.0,7.0,50,0.00,,,0.00,Wunderground v.1.15,2013-03-10 06:54:00,
2013-03-10 00:55:00,62.8,43.9,29.74,SSE,166,0.0,7.0,50,0.00,,,0.00,Wunderground v.1.15,2013-03-10 06:55:00,
2013-03-10 01:00:00,62.7,43.8,29.74,South,169,4.0,7.0,50,0.00,,,0.00,Wunderground v.1.15,2013-03-10 07:00:00,
2013-03-10 01:01:00,62.7,43.8,29.74,South,169,2.0,7.0,50,0.00,,,0.00,Wunderground v.1.15,2013-03-10 07:01:00,
2013-03-10 01:04:00,62.6,44.2,29.73,SSE,168,0.0,2.0,51,0.00,,,0.00,Wunderground v.1.15,2013-03-10 07:04:00,
2013-03-10 01:08:00,62.4,44.0,29.73,South,182,1.0,2.0,51,0.00,,,0.00,Wunderground v.1.15,2013-03-10 07:08:00,
2013-03-10 01:09:00,62.4,44.0,29.73,South,180,0.0,2.0,51,0.00,,,0.00,Wunderground v.1.15,2013-03-10 07:09:00,
2013-03-10 01:11:00,62.2,43.8,29.73,SSE,162,4.0,4.0,51,0.00,,,0.00,Wunderground v.1.15,2013-03-10 07:11:00,
2013-03-10 01:12:00,62.2,43.8,29.73,SSE,163,0.0,2.0,51,0.00,,,0.00,Wunderground v.1.15,2013-03-10 07:12:00,
2013-03-10 01:14:00,62.1,44.3,29.73,South,178,0.0,2.0,52,0.00,,,0.00,Wunderground v.1.15,2013-03-10 07:14:00,
2013-03-10 01:16:00,62.0,44.2,29.74,South,169,0.0,2.0,52,0.00,,,0.00,Wunderground v.1.15,2013-03-10 07:16:00,
2013-03-10 01:20:00,61.9,44.1,29.74,South,174,2.0,3.0,52,0.00,,,0.00,Wunderground v.1.15,2013-03-10 07:20:00,
2013-03-10 01:21:00,61.8,44.5,29.74,South,176,1.0,3.0,53,0.00,,,0.00,Wunderground v.1.15,2013-03-10 07:21:00,
2013-03-10 01:22:00,61.8,44.5,29.74,South,184,0.0,1.0,53,0.00,,,0.00,Wunderground v.1.15,2013-03-10 07:22:00,
2013-03-10 01:26:00,61.7,44.4,29.74,South,172,0.0,1.0,53,0.00,,,0.00,Wunderground v.1.15,2013-03-10 07:26:00,
2013-03-10 01:29:00,61.6,44.3,29.73,South,171,0.0,3.0,53,0.00,,,0.00,Wunderground v.1.15,2013-03-10 07:29:00,
2013-03-10 01:33:00,61.6,44.3,29.73,South,171,4.0,4.0,53,0.00,,,0.00,Wunderground v.1.15,2013-03-10 07:33:00,
2013-03-10 01:34:00,61.5,44.7,29.73,South,175,0.0,4.0,54,0.00,,,0.00,Wunderground v.1.15,2013-03-10 07:34:00,
2013-03-10 01:35:00,61.5,44.7,29.73,South,171,0.0,4.0,54,0.00,,,0.00,Wunderground v.1.15,2013-03-10 07:35:00,
2013-03-10 01:39:00,61.3,44.5,29.73,SSW,192,3.0,4.0,54,0.00,,,0.00,Wunderground v.1.15,2013-03-10 07:39:00,
2013-03-10 01:43:00,61.3,45.0,29.72,South,172,4.0,4.0,55,0.00,,,0.00,Wunderground v.1.15,2013-03-10 07:43:00,
2013-03-10 01:44:00,61.3,45.0,29.72,South,179,0.0,4.0,55,0.00,,,0.00,Wunderground v.1.15,2013-03-10 07:44:00,
2013-03-10 01:47:00,61.3,45.0,29.72,South,183,3.0,4.0,55,0.00,,,0.00,Wunderground v.1.15,2013-03-10 07:47:00,
2013-03-10 01:48:00,61.3,45.0,29.72,SSW,194,0.0,4.0,55,0.00,,,0.00,Wunderground v.1.15,2013-03-10 07:48:00,
2013-03-10 01:53:00,61.4,45.1,29.71,South,184,3.0,3.0,55,0.00,,,0.00,Wunderground v.1.15,2013-03-10 07:53:00,
2013-03-10 01:54:00,61.4,45.1,29.71,SSE,156,3.0,3.0,55,0.00,,,0.00,Wunderground v.1.15,2013-03-10 07:54:00,
2013-03-10 01:55:00,61.4,45.1,29.71,SSW,200,6.0,6.0,55,0.00,,,0.00,Wunderground v.1.15,2013-03-10 07:55:00,
2013-03-10 01:59:00,61.5,45.7,29.71,South,172,5.0,6.0,56,0.00,,,0.00,Wunderground v.1.15,2013-03-10 07:59:00,
2013-03-10 03:00:00,61.5,45.7,29.71,South,180,5.0,6.0,56,0.00,,,0.00,Wunderground v.1.15,2013-03-10 08:00:00,
2013-03-10 03:01:00,61.5,45.7,29.71,South,183,0.0,6.0,56,0.00,,,0.00,Wunderground v.1.15,2013-03-10 08:01:00,
2013-03-10 03:04:00,61.5,45.7,29.71,South,177,4.0,6.0,56,0.00,,,0.00,Wunderground v.1.15,2013-03-10 08:04:00,
2013-03-10 03:06:00,61.6,45.7,29.71,SSW,205,3.0,11.0,56,0.00,,,0.00,Wunderground v.1.15,2013-03-10 08:06:00,
2013-03-10 03:09:00,61.6,45.7,29.71,SSE,157,8.0,11.0,56,0.00,,,0.00,Wunderground v.1.15,2013-03-10 08:09:00,
2013-03-10 03:11:00,61.5,45.7,29.71,SSE,164,5.0,11.0,56,0.00,,,0.00,Wunderground v.1.15,2013-03-10 08:11:00,
2013-03-10 03:12:00,61.5,45.7,29.70,SSW,196,5.0,11.0,56,0.00,,,0.00,Wunderground v.1.15,2013-03-10 08:12:00,
2013-03-10 03:14:00,61.5,45.7,29.70,SSW,210,2.0,8.0,56,0.00,,,0.00,Wunderground v.1.15,2013-03-10 08:14:00,
2013-03-10 03:16:00,61.5,45.7,29.70,SSW,199,0.0,8.0,56,0.00,,,0.00,Wunderground v.1.15,2013-03-10 08:16:00,
2013-03-10 03:17:00,61.4,45.6,29.70,South,174,4.0,9.0,56,0.00,,,0.00,Wunderground v.1.15,2013-03-10 08:17:00,
2013-03-10 03:19:00,61.4,45.6,29.70,SSE,163,9.0,9.0,56,0.00,,,0.00,Wunderground v.1.15,2013-03-10 08:19:00,
2013-03-10 03:21:00,61.4,45.6,29.70,SSE,165,7.0,9.0,56,0.00,,,0.00,Wunderground v.1.15,2013-03-10 08:21:00,
2013-03-10 03:22:00,61.4,45.6,29.70,South,188,6.0,6.0,56,0.00,,,0.00,Wunderground v.1.15,2013-03-10 08:22:00,
2013-03-10 03:24:00,61.4,45.6,29.70,SSE,164,5.0,8.0,56,0.00,,,0.00,Wunderground v.1.15,2013-03-10 08:24:00,
2013-03-10 03:26:00,61.4,46.0,29.70,South,170,4.0,8.0,57,0.00,,,0.00,Wunderground v.1.15,2013-03-10 08:26:00,
2013-03-10 03:27:00,61.3,45.9,29.70,SSE,165,2.0,8.0,57,0.00,,,0.00,Wunderground v.1.15,2013-03-10 08:27:00,
2013-03-10 03:29:00,61.3,45.9,29.70,South,190,4.0,10.0,57,0.00,,,0.00,Wunderground v.1.15,2013-03-10 08:29:00,
2013-03-10 03:32:00,61.3,45.9,29.70,SSE,162,0.0,4.0,57,0.00,,,0.00,Wunderground v.1.15,2013-03-10 08:32:00,
2013-03-10 03:33:00,61.2,46.3,29.70,SSE,163,5.0,5.0,58,0.00,,,0.00,Wunderground v.1.15,2013-03-10 08:33:00,
2013-03-10 03:34:00,61.2,46.3,29.70,South,179,0.0,5.0,58,0.00,,,0.00,Wunderground v.1.15,2013-03-10 08:34:00,
2013-03-10 03:38:00,61.2,46.3,29.70,SSE,164,1.0,7.0,58,0.00,,,0.00,Wunderground v.1.15,2013-03-10 08:38:00,
2013-03-10 03:40:00,61.2,46.3,29.69,South,185,4.0,9.0,58,0.00,,,0.00,Wunderground v.1.15,2013-03-10 08:40:00,
2013-03-10 03:43:00,61.2,46.3,29.69,South,182,0.0,3.0,58,0.00,,,0.00,Wunderground v.1.15,2013-03-10 08:43:00,
2013-03-10 03:44:00,61.1,46.2,29.69,South,170,0.0,7.0,58,0.00,,,0.00,Wunderground v.1.15,2013-03-10 08:44:00,
2013-03-10 03:45:00,61.1,46.7,29.69,South,175,2.0,7.0,59,0.00,,,0.00,Wunderground v.1.15,2013-03-10 08:45:00,
2013-03-10 03:48:00,61.1,46.7,29.69,South,188,1.0,9.0,59,0.00,,,0.00,Wunderground v.1.15,2013-03-10 08:48:00,
2013-03-10 03:49:00,61.1,46.7,29.69,SSW,196,4.0,9.0,59,0.00,,,0.00,Wunderground v.1.15,2013-03-10 08:49:00,
2013-03-10 03:50:00,61.1,46.7,29.69,South,188,4.0,9.0,59,0.00,,,0.00,Wunderground v.1.15,2013-03-10 08:50:00,
2013-03-10 03:53:00,61.0,47.0,29.69,South,179,8.0,8.0,60,0.00,,,0.00,Wunderground v.1.15,2013-03-10 08:53:00,
2013-03-10 03:54:00,61.1,47.1,29.69,SSW,200,0.0,8.0,60,0.00,,,0.00,Wunderground v.1.15,2013-03-10 08:54:00,
2013-03-10 03:55:00,61.1,47.1,29.69,South,171,11.0,11.0,60,0.00,,,0.00,Wunderground v.1.15,2013-03-10 08:55:00,
2013-03-10 03:58:00,61.1,47.1,29.69,South,175,1.0,12.0,60,0.00,,,0.00,Wunderground v.1.15,2013-03-10 08:58:00,
2013-03-10 03:59:00,61.1,47.1,29.69,South,190,1.0,12.0,60,0.00,,,0.00,Wunderground v.1.15,2013-03-10 08:59:00,
2013-03-10 04:00:00,61.1,47.1,29.69,SE,144,6.0,12.0,60,0.00,,,0.00,Wunderground v.1.15,2013-03-10 09:00:00,
2013-03-10 04:01:00,61.1,47.1,29.69,SSE,163,5.0,12.0,60,0.00,,,0.00,Wunderground v.1.15,2013-03-10 09:01:00,
2013-03-10 04:03:00,61.1,47.5,29.69,SSE,165,3.0,9.0,61,0.00,,,0.00,Wunderground v.1.15,2013-03-10 09:03:00,
2013-03-10 04:04:00,61.1,47.5,29.69,SSE,158,1.0,9.0,61,0.00,,,0.00,Wunderground v.1.15,2013-03-10 09:04:00,
2013-03-10 04:06:00,61.1,47.5,29.69,SSE,168,4.0,9.0,61,0.00,,,0.00,Wunderground v.1.15,2013-03-10 09:06:00,
2013-03-10 04:09:00,61.0,47.4,29.69,SSE,167,8.0,9.0,61,0.00,,,0.00,Wunderground v.1.15,2013-03-10 09:09:00,
2013-03-10 04:10:00,61.0,47.4,29.69,South,184,0.0,9.0,61,0.00,,,0.00,Wunderground v.1.15,2013-03-10 09:10:00,
2013-03-10 04:11:00,60.9,47.4,29.68,South,180,6.0,9.0,61,0.00,,,0.00,Wunderground v.1.15,2013-03-10 09:11:00,
2013-03-10 04:14:00,60.9,47.8,29.68,South,169,4.0,8.0,62,0.00,,,0.00,Wunderground v.1.15,2013-03-10 09:14:00,
2013-03-10 04:15:00,60.9,47.8,29.68,South,182,3.0,8.0,62,0.00,,,0.00,Wunderground v.1.15,2013-03-10 09:15:00,
2013-03-10 04:16:00,60.8,47.7,29.68,South,178,6.0,8.0,62,0.00,,,0.00,Wunderground v.1.15,2013-03-10 09:16:00,
2013-03-10 04:19:00,60.8,47.7,29.68,South,175,4.0,11.0,62,0.00,,,0.00,Wunderground v.1.15,2013-03-10 09:19:00,
2013-03-10 04:20:00,60.8,47.7,29.68,South,173,3.0,11.0,62,0.00,,,0.00,Wunderground v.1.15,2013-03-10 09:20:00,
2013-03-10 04:22:00,60.8,47.7,29.68,SSW,192,3.0,11.0,62,0.00,,,0.00,Wunderground v.1.15,2013-03-10 09:22:00,
2013-03-10 04:25:00,60.7,47.6,29.67,South,188,9.0,9.0,62,0.00,,,0.00,Wunderground v.1.15,2013-03-10 09:25:00,
2013-03-10 04:27:00,60.7,47.6,29.67,SSW,202,7.0,9.0,62,0.00,,,0.00,Wunderground v.1.15,2013-03-10 09:27:00,
2013-03-10 04:30:00,60.7,48.0,29.67,South,183,8.0,13.0,63,0.00,,,0.00,Wunderground v.1.15,2013-03-10 09:30:00,
2013-03-10 04:31:00,60.7,48.0,29.67,South,190,4.0,13.0,63,0.00,,,0.00,Wunderground v.1.15,2013-03-10 09:31:00,
2013-03-10 04:32:00,60.7,48.0,29.68,SSE,159,11.0,11.0,63,0.00,,,0.00,Wunderground v.1.15,2013-03-10 09:32:00,
2013-03-10 04:33:00,60.7,48.0,29.68,SSE,166,7.0,11.0,63,0.00,,,0.00,Wunderground v.1.15,2013-03-10 09:33:00,
2013-03-10 04:36:00,60.7,48.0,29.67,SSW,202,9.0,12.0,63,0.00,,,0.00,Wunderground v.1.15,2013-03-10 09:36:00,
2013-03-10 04:38:00,60.7,48.0,29.67,SSE,167,6.0,12.0,63,0.00,,,0.00,Wunderground v.1.15,2013-03-10 09:38:00,
2013-03-10 04:41:00,60.6,48.4,29.67,SSE,163,3.0,12.0,64,0.00,,,0.00,Wunderground v.1.15,2013-03-10 09:41:00,
2013-03-10 04:42:00,60.6,48.4,29.67,SSE,153,8.0,12.0,64,0.00,,,0.00,Wunderground v.1.15,2013-03-10 09:42:00,
2013-03-10 04:43:00,60.6,48.4,29.67,South,176,9.0,9.0,64,0.00,,,0.00,Wunderground v.1.15,2013-03-10 09:43:00,
2013-03-10 04:46:00,60.5,48.7,29.67,South,175,0.0,9.0,65,0.00,,,0.00,Wunderground v.1.15,2013-03-10 09:46:00,
2013-03-10 04:47:00,60.5,48.7,29.67,SSE,159,9.0,12.0,65,0.00,,,0.00,Wunderground v.1.15,2013-03-10 09:47:00,
2013-03-10 04:49:00,60.5,48.7,29.67,SSE,167,0.0,12.0,65,0.00,,,0.00,Wunderground v.1.15,2013-03-10 09:49:00,
2013-03-10 04:51:00,60.4,48.6,29.67,SSW,200,7.0,12.0,65,0.00,,,0.00,Wunderground v.1.15,2013-03-10 09:51:00,
2013-03-10 04:52:00,60.4,48.6,29.66,SSW,206,6.0,6.0,65,0.00,,,0.00,Wunderground v.1.15,2013-03-10 09:52:00,
2013-03-10 04:54:00,60.4,48.6,29.66,South,180,7.0,11.0,65,0.00,,,0.00,Wunderground v.1.15,2013-03-10 09:54:00,
2013-03-10 04:56:00,60.4,48.6,29.66,South,191,4.0,14.0,65,0.00,,,0.00,Wunderground v.1.15,2013-03-10 09:56:00,
2013-03-10 04:57:00,60.3,48.5,29.66,ESE,112,9.0,14.0,65,0.00,,,0.00,Wunderground v.1.15,2013-03-10 09:57:00,
2013-03-10 04:59:00,60.3,48.9,29.66,South,190,4.0,14.0,66,0.00,,,0.00,Wunderground v.1.15,2013-03-10 09:59:00,
2013-03-10 05:02:00,60.2,48.8,29.66,SSE,161,8.0,14.0,66,0.00,,,0.00,Wunderground v.1.15,2013-03-10 10:02:00,
2013-03-10 05:04:00,60.1,49.1,29.66,South,184,7.0,13.0,67,0.00,,,0.00,Wunderground v.1.15,2013-03-10 10:04:00,
2013-03-10 05:05:00,60.1,49.1,29.66,South,173,2.0,13.0,67,0.00,,,0.00,Wunderground v.1.15,2013-03-10 10:05:00,
2013-03-10 05:07:00,60.1,49.1,29.66,South,177,2.0,13.0,67,0.00,,,0.00,Wunderground v.1.15,2013-03-10 10:07:00,
2013-03-10 05:08:00,60.0,49.0,29.66,South,190,12.0,13.0,67,0.00,,,0.00,Wunderground v.1.15,2013-03-10 10:08:00,
2013-03-10 05:10:00,60.0,49.0,29.66,SSE,165,8.0,14.0,67,0.00,,,0.00,Wunderground v.1.15,2013-03-10 10:10:00,
2013-03-10 05:13:00,60.0,49.0,29.66,South,173,4.0,12.0,67,0.00,,,0.00,Wunderground v.1.15,2013-03-10 10:13:00,
2013-03-10 05:15:00,60.0,49.0,29.66,SSE,156,4.0,12.0,67,0.00,,,0.00,Wunderground v.1.15,2013-03-10 10:15:00,
2013-03-10 05:18:00,60.0,49.0,29.66,SSE,163,7.0,12.0,67,0.00,,,0.00,Wunderground v.1.15,2013-03-10 10:18:00,
2013-03-10 05:19:00,60.0,49.4,29.66,South,190,9.0,12.0,68,0.00,,,0.00,Wunderground v.1.15,2013-03-10 10:19:00,
2013-03-10 05:20:00,59.9,48.9,29.66,SSW,196,7.0,12.0,67,0.00,,,0.00,Wunderground v.1.15,2013-03-10 10:20:00,
2013-03-10 05:21:00,59.9,48.9,29.66,SSW,198,7.0,12.0,67,0.00,,,0.00,Wunderground v.1.15,2013-03-10 10:21:00,
2013-03-10 05:23:00,59.9,49.3,29.66,South,175,4.0,6.0,68,0.00,,,0.00,Wunderground v.1.15,2013-03-10 10:23:00,
2013-03-10 05:25:00,59.8,49.2,29.65,SSE,163,5.0,10.0,68,0.00,,,0.00,Wunderground v.1.15,2013-03-10 10:25:00,
2013-03-10 05:26:00,59.8,49.2,29.65,SSE,168,7.0,10.0,68,0.00,,,0.00,Wunderground v.1.15,2013-03-10 10:26:00,
2013-03-10 05:28:00,59.7,49.1,29.66,SSE,167,7.0,10.0,68,0.00,,,0.00,Wunderground v.1.15,2013-03-10 10:28:00,
2013-03-10 05:30:00,59.6,49.4,29.66,South,170,3.0,10.0,69,0.00,,,0.00,Wunderground v.1.15,2013-03-10 10:30:00,
2013-03-10 05:31:00,59.6,49.4,29.66,South,188,6.0,10.0,69,0.00,,,0.00,Wunderground v.1.15,2013-03-10 10:31:00,
2013-03-10 05:34:00,59.5,49.3,29.66,SSE,164,4.0,9.0,69,0.00,,,0.00,Wunderground v.1.15,2013-03-10 10:34:00,
2013-03-10 05:36:00,59.5,49.3,29.66,South,169,5.0,9.0,69,0.00,,,0.00,Wunderground v.1.15,2013-03-10 10:36:00,
2013-03-10 05:39:00,59.6,49.8,29.66,South,173,5.0,10.0,70,0.00,,,0.00,Wunderground v.1.15,2013-03-10 10:39:00,
2013-03-10 05:41:00,59.6,49.8,29.66,SSE,152,6.0,10.0,70,0.00,,,0.00,Wunderground v.1.15,2013-03-10 10:41:00,
2013-03-10 05:45:00,59.7,49.9,29.67,SSE,155,9.0,13.0,70,0.00,,,0.00,Wunderground v.1.15,2013-03-10 10:45:00,
2013-03-10 05:46:00,59.7,49.9,29.67,SSW,205,7.0,13.0,70,0.00,,,0.00,Wunderground v.1.15,2013-03-10 10:46:00,
2013-03-10 05:50:00,59.7,50.3,29.67,SSE,163,4.0,13.0,71,0.00,,,0.00,Wunderground v.1.15,2013-03-10 10:50:00,
2013-03-10 05:51:00,59.7,50.3,29.67,SSE,150,0.0,13.0,71,0.00,,,0.00,Wunderground v.1.15,2013-03-10 10:51:00,
2013-03-10 05:52:00,59.7,50.3,29.67,South,180,6.0,13.0,71,0.00,,,0.00,Wunderground v.1.15,2013-03-10 10:52:00,
2013-03-10 05:56:00,59.6,50.2,29.67,SSW,203,7.0,8.0,71,0.00,,,0.00,Wunderground v.1.15,2013-03-10 10:56:00,
2013-03-10 05:57:00,59.5,50.5,29.67,South,169,6.0,8.0,72,0.00,,,0.00,Wunderground v.1.15,2013-03-10 10:57:00,
2013-03-10 06:01:00,59.5,50.5,29.66,South,177,9.0,11.0,72,0.00,,,0.00,Wunderground v.1.15,2013-03-10 11:01:00,
2013-03-10 06:02:00,59.5,50.5,29.66,SSE,168,9.0,11.0,72,0.00,,,0.00,Wunderground v.1.15,2013-03-10 11:02:00,
2013-03-10 06:06:00,59.6,50.9,29.66,South,174,8.0,13.0,73,0.00,,,0.00,Wunderground v.1.15,2013-03-10 11:06:00,
2013-03-10 06:07:00,59.6,50.9,29.66,South,172,9.0,13.0,73,0.00,,,0.00,Wunderground v.1.15,2013-03-10 11:07:00,
2013-03-10 06:08:00,59.6,50.9,29.67,South,171,6.0,13.0,73,0.00,,,0.00,Wunderground v.1.15,2013-03-10 11:08:00,
2013-03-10 06:11:00,59.7,51.0,29.67,SSE,165,6.0,13.0,73,0.00,,,0.00,Wunderground v.1.15,2013-03-10 11:11:00,
2013-03-10 06:12:00,59.7,51.0,29.67,SSW,199,9.0,13.0,73,0.00,,,0.00,Wunderground v.1.15,2013-03-10 11:12:00,
2013-03-10 06:13:00,59.7,51.0,29.68,SSE,165,0.0,8.0,73,0.00,,,0.00,Wunderground v.1.15,2013-03-10 11:13:00,
2013-03-10 06:17:00,59.6,50.9,29.68,South,179,3.0,13.0,73,0.00,,,0.00,Wunderground v.1.15,2013-03-10 11:17:00,
2013-03-10 06:19:00,59.7,51.0,29.68,SSE,164,6.0,13.0,73,0.00,,,0.00,Wunderground v.1.15,2013-03-10 11:19:00,
2013-03-10 06:22:00,59.6,50.9,29.68,South,188,4.0,13.0,73,0.00,,,0.00,Wunderground v.1.15,2013-03-10 11:22:00,
2013-03-10 06:23:00,59.6,50.9,29.68,South,171,9.0,13.0,73,0.00,,,0.00,Wunderground v.1.15,2013-03-10 11:23:00,
2013-03-10 06:24:00,59.7,51.0,29.68,South,176,3.0,13.0,73,0.00,,,0.00,Wunderground v.1.15,2013-03-10 11:24:00,
2013-03-10 06:27:00,59.6,51.3,29.68,South,190,4.0,13.0,74,0.00,,,0.00,Wunderground v.1.15,2013-03-10 11:27:00,
2013-03-10 06:28:00,59.6,51.3,29.68,South,186,6.0,13.0,74,0.00,,,0.00,Wunderground v.1.15,2013-03-10 11:28:00,
2013-03-10 06:29:00,59.6,51.3,29.68,South,172,0.0,13.0,74,0.00,,,0.00,Wunderground v.1.15,2013-03-10 11:29:00,
2013-03-10 06:32:00,59.5,51.2,29.68,South,185,4.0,6.0,74,0.00,,,0.00,Wunderground v.1.15,2013-03-10 11:32:00,
2013-03-10 06:33:00,59.4,51.1,29.68,South,185,4.0,8.0,74,0.00,,,0.00,Wunderground v.1.15,2013-03-10 11:33:00,
2013-03-10 06:34:00,59.4,51.1,29.68,SSW,198,10.0,10.0,74,0.00,,,0.00,Wunderground v.1.15,2013-03-10 11:34:00,
2013-03-10 06:37:00,59.4,51.1,29.68,South,172,5.0,10.0,74,0.00,,,0.00,Wunderground v.1.15,2013-03-10 11:37:00,
2013-03-10 06:38:00,59.4,51.1,29.68,SSE,152,10.0,12.0,74,0.00,,,0.00,Wunderground v.1.15,2013-03-10 11:38:00,
2013-03-10 06:40:00,59.4,51.1,29.68,SSW,192,6.0,12.0,74,0.00,,,0.00,Wunderground v.1.15,2013-03-10 11:40:00,
2013-03-10 06:43:00,59.3,51.4,29.68,South,175,6.0,8.0,75,0.00,,,0.00,Wunderground v.1.15,2013-03-10 11:43:00,
2013-03-10 06:44:00,59.3,51.4,29.68,SSE,160,7.0,8.0,75,0.00,,,0.00,Wunderground v.1.15,2013-03-10 11:44:00,
2013-03-10 06:45:00,59.3,51.4,29.68,South,182,7.0,16.0,75,0.00,,,0.00,Wunderground v.1.15,2013-03-10 11:45:00,
2013-03-10 06:48:00,59.3,51.4,29.68,SSE,164,6.0,16.0,75,0.00,,,0.00,Wunderground v.1.15,2013-03-10 11:48:00,
2013-03-10 06:49:00,59.3,51.4,29.68,SSE,149,8.0,16.0,75,0.00,,,0.00,Wunderground v.1.15,2013-03-10 11:49:00,
2013-03-10 06:51:00,59.1,51.2,29.67,SSE,162,8.0,16.0,75,0.00,,,0.00,Wunderground v.1.15,2013-03-10 11:51:00,
2013-03-10 06:53:00,59.1,51.2,29.67,SSE,161,13.0,13.0,75,0.00,,,0.00,Wunderground v.1.15,2013-03-10 11:53:00,
2013-03-10 06:54:00,59.0,51.1,29.67,South,171,9.0,13.0,75,0.00,,,0.00,Wunderground v.1.15,2013-03-10 11:54:00,
2013-03-10 06:56:00,59.0,51.1,29.67,SSE,160,6.0,13.0,75,0.00,,,0.00,Wunderground v.1.15,2013-03-10 11:56:00,
2013-03-10 06:58:00,59.0,51.1,29.66,SSE,159,8.0,13.0,75,0.00,,,0.00,Wunderground v.1.15,2013-03-10 11:58:00,
2013-03-10 06:59:00,59.0,51.1,29.66,SSW,194,7.0,13.0,75,0.00,,,0.00,Wunderground v.1.15,2013-03-10 11:59:00,
2013-03-10 07:02:00,59.0,51.1,29.66,South,191,6.0,13.0,75,0.00,,,0.00,Wunderground v.1.15,2013-03-10 12:02:00,
2013-03-10 07:04:00,59.0,51.1,29.66,South,185,5.0,12.0,75,0.00,,,0.00,Wunderground v.1.15,2013-03-10 12:04:00,
2013-03-10 07:07:00,59.0,51.1,29.66,South,188,8.0,13.0,75,0.00,,,0.00,Wunderground v.1.15,2013-03-10 12:07:00,
2013-03-10 07:09:00,59.0,51.1,29.66,SSE,161,5.0,13.0,75,0.00,,,0.00,Wunderground v.1.15,2013-03-10 12:09:00,
2013-03-10 07:10:00,59.0,51.1,29.66,SSW,193,7.0,13.0,75,0.00,,,0.00,Wunderground v.1.15,2013-03-10 12:10:00,
2013-03-10 07:12:00,59.0,51.1,29.66,SSE,157,15.0,15.0,75,0.00,,,0.00,Wunderground v.1.15,2013-03-10 12:12:00,
2013-03-10 07:15:00,59.0,51.1,29.65,SSE,168,11.0,16.0,75,0.00,,,0.00,Wunderground v.1.15,2013-03-10 12:15:00,
2013-03-10 07:17:00,59.0,51.1,29.65,South,182,6.0,16.0,75,0.00,,,0.00,Wunderground v.1.15,2013-03-10 12:17:00,
2013-03-10 07:20:00,59.0,51.1,29.64,South,179,3.0,16.0,75,0.00,,,0.00,Wunderground v.1.15,2013-03-10 12:20:00,
2013-03-10 07:21:00,59.0,51.1,29.64,South,177,5.0,16.0,75,0.00,,,0.00,Wunderground v.1.15,2013-03-10 12:21:00,
2013-03-10 07:23:00,59.0,51.1,29.64,South,173,6.0,12.0,75,0.00,,,0.00,Wunderground v.1.15,2013-03-10 12:23:00,
2013-03-10 07:25:00,59.0,51.1,29.64,South,184,8.0,12.0,75,0.00,,,0.00,Wunderground v.1.15,2013-03-10 12:25:00,
2013-03-10 07:26:00,58.9,51.0,29.64,ESE,123,8.0,12.0,75,0.00,,,0.00,Wunderground v.1.15,2013-03-10 12:26:00,
2013-03-10 07:28:00,58.8,50.9,29.63,SSE,152,8.0,13.0,75,0.00,,,0.00,Wunderground v.1.15,2013-03-10 12:28:00,
2013-03-10 07:31:00,58.8,50.9,29.62,South,190,6.0,13.0,75,0.00,,,0.00,Wunderground v.1.15,2013-03-10 12:31:00,
2013-03-10 07:33:00,58.8,50.9,29.63,South,180,5.0,12.0,75,0.00,,,0.00,Wunderground v.1.15,2013-03-10 12:33:00,
2013-03-10 07:36:00,58.8,50.9,29.63,South,185,7.0,12.0,75,0.00,,,0.00,Wunderground v.1.15,2013-03-10 12:36:00,
2013-03-10 07:37:00,58.8,50.9,29.63,SSE,155,11.0,13.0,75,0.00,,,0.00,Wunderground v.1.15,2013-03-10 12:37:00,
2013-03-10 07:39:00,58.9,50.6,29.63,South,180,10.0,17.0,74,0.00,,,0.00,Wunderground v.1.15,2013-03-10 12:39:00,
2013-03-10 07:41:00,58.9,50.6,29.63,South,182,8.0,17.0,74,0.00,,,0.00,Wunderground v.1.15,2013-03-10 12:41:00,
2013-03-10 07:42:00,59.0,50.7,29.63,South,182,10.0,17.0,74,0.00,,,0.00,Wunderground v.1.15,2013-03-10 12:42:00,
2013-03-10 07:45:00,58.8,50.5,29.63,SSW,209,15.0,17.0,74,0.00,,,0.00,Wunderground v.1.15,2013-03-10 12:45:00,
2013-03-10 07:46:00,58.9,50.6,29.64,South,180,6.0,17.0,74,0.00,,,0.00,Wunderground v.1.15,2013-03-10 12:46:00,
2013-03-10 07:47:00,59.0,50.7,29.64,South,188,9.0,17.0,74,0.00,,,0.00,Wunderground v.1.15,2013-03-10 12:47:00,
2013-03-10 07:51:00,58.9,50.6,29.64,SSE,159,9.0,17.0,74,0.00,,,0.00,Wunderground v.1.15,2013-03-10 12:51:00,
2013-03-10 07:52:00,59.0,50.7,29.64,South,171,11.0,17.0,74,0.00,,,0.00,Wunderground v.1.15,2013-03-10 12:52:00,
2013-03-10 07:53:00,58.9,50.6,29.64,SSE,154,7.0,13.0,74,0.00,,,0.00,Wunderground v.1.15,2013-03-10 12:53:00,
2013-03-10 07:56:00,58.8,50.5,29.63,South,180,6.0,13.0,74,0.00,,,0.00,Wunderground v.1.15,2013-03-10 12:56:00,
2013-03-10 07:57:00,58.8,50.5,29.63,South,173,8.0,13.0,74,0.00,,,0.00,Wunderground v.1.15,2013-03-10 12:57:00,
2013-03-10 07:58:00,58.8,50.5,29.63,South,171,7.0,13.0,74,0.00,,,0.00,Wunderground v.1.15,2013-03-10 12:58:00,
2013-03-10 08:01:00,58.8,50.5,29.63,South,186,9.0,13.0,74,0.00,,,0.00,Wunderground v.1.15,2013-03-10 13:01:00,
2013-03-10 08:02:00,58.9,50.6,29.64,South,171,5.0,8.0,74,0.00,,,0.00,Wunderground v.1.15,2013-03-10 13:02:00,
2013-03-10 08:03:00,58.9,50.6,29.64,SSW,208,9.0,12.0,74,0.00,,,0.00,Wunderground v.1.15,2013-03-10 13:03:00,
2013-03-10 08:07:00,59.0,50.7,29.64,SSE,166,10.0,12.0,74,0.00,,,0.00,Wunderground v.1.15,2013-03-10 13:07:00,
2013-03-10 08:08:00,59.0,50.7,29.63,SSW,196,7.0,12.0,74,0.00,,,0.00,Wunderground v.1.15,2013-03-10 13:08:00,
2013-03-10 08:09:00,58.9,50.6,29.64,South,169,9.0,12.0,74,0.00,,,0.00,Wunderground v.1.15,2013-03-10 13:09:00,
2013-03-10 08:12:00,58.8,50.5,29.64,South,191,7.0,7.0,74,0.00,,,0.00,Wunderground v.1.15,2013-03-10 13:12:00,
2013-03-10 08:13:00,58.8,50.5,29.64,South,175,5.0,8.0,74,0.00,,,0.00,Wunderground v.1.15,2013-03-10 13:13:00,
2013-03-10 08:15:00,58.8,50.5,29.65,SSE,160,10.0,10.0,74,0.00,,,0.00,Wunderground v.1.15,2013-03-10 13:15:00,
2013-03-10 08:18:00,58.8,50.5,29.65,South,183,9.0,11.0,74,0.00,,,0.00,Wunderground v.1.15,2013-03-10 13:18:00,
2013-03-10 08:20:00,58.9,50.6,29.65,South,173,5.0,11.0,74,0.00,,,0.00,Wunderground v.1.15,2013-03-10 13:20:00,
2013-03-10 08:23:00,59.0,50.7,29.64,South,184,9.0,12.0,74,0.00,,,0.00,Wunderground v.1.15,2013-03-10 13:23:00,
2013-03-10 08:25:00,59.0,50.7,29.65,SSW,198,10.0,12.0,74,0.00,,,0.00,Wunderground v.1.15,2013-03-10 13:25:00,
2013-03-10 08:28:00,59.0,50.7,29.66,South,179,7.0,12.0,74,0.00,,,0.00,Wunderground v.1.15,2013-03-10 13:28:00,
2013-03-10 08:31:00,59.3,51.0,29.65,SSE,162,13.0,13.0,74,0.00,,,0.00,Wunderground v.1.15,2013-03-10 13:31:00,
2013-03-10 08:33:00,59.5,51.2,29.66,South,171,3.0,7.0,74,0.00,,,0.00,Wunderground v.1.15,2013-03-10 13:33:00,
2013-03-10 08:34:00,59.5,50.8,29.66,SSE,165,5.0,10.0,73,0.00,,,0.00,Wunderground v.1.15,2013-03-10 13:34:00,
2013-03-10 08:37:00,59.8,51.5,29.66,South,177,9.0,12.0,74,0.00,,,0.00,Wunderground v.1.15,2013-03-10 13:37:00,
2013-03-10 08:38:00,59.8,51.1,29.66,South,175,8.0,12.0,73,0.00,,,0.00,Wunderground v.1.15,2013-03-10 13:38:00,
2013-03-10 08:39:00,59.8,51.1,29.65,South,180,10.0,12.0,73,0.00,,,0.00,Wunderground v.1.15,2013-03-10 13:39:00,
2013-03-10 08:42:00,60.0,51.7,29.65,SSE,165,7.0,8.0,74,0.00,,,0.00,Wunderground v.1.15,2013-03-10 13:42:00,
2013-03-10 08:43:00,60.0,51.7,29.65,South,185,14.0,15.0,74,0.00,,,0.00,Wunderground v.1.15,2013-03-10 13:43:00,
2013-03-10 08:44:00,60.1,51.8,29.65,South,169,9.0,15.0,74,0.00,,,0.00,Wunderground v.1.15,2013-03-10 13:44:00,
2013-03-10 08:47:00,60.3,51.6,29.64,SSE,153,5.0,15.0,73,0.00,,,0.00,Wunderground v.1.15,2013-03-10 13:47:00,
2013-03-10 08:48:00,60.3,51.6,29.64,SSW,193,9.0,15.0,73,0.00,,,0.00,Wunderground v.1.15,2013-03-10 13:48:00,
2013-03-10 08:49:00,60.4,51.7,29.64,SSW,202,7.0,15.0,73,0.00,,,0.00,Wunderground v.1.15,2013-03-10 13:49:00,
2013-03-10 08:53:00,60.4,51.7,29.64,SSE,155,11.0,14.0,73,0.00,,,0.00,Wunderground v.1.15,2013-03-10 13:53:00,
2013-03-10 08:54:00,60.5,52.2,29.64,SSE,157,6.0,14.0,74,0.00,,,0.00,Wunderground v.1.15,2013-03-10 13:54:00,
2013-03-10 08:55:00,60.5,52.2,29.64,South,174,8.0,14.0,74,0.00,,,0.00,Wunderground v.1.15,2013-03-10 13:55:00,
2013-03-10 08:58:00,60.5,52.2,29.64,South,173,5.0,15.0,74,0.00,,,0.00,Wunderground v.1.15,2013-03-10 13:58:00,
2013-03-10 08:59:00,60.5,52.2,29.65,South,169,9.0,15.0,74,0.00,,,0.00,Wunderground v.1.15,2013-03-10 13:59:00,
2013-03-10 09:00:00,60.6,52.3,29.65,South,187,5.0,15.0,74,0.00,,,0.00,Wunderground v.1.15,2013-03-10 14:00:00,
2013-03-10 09:03:00,60.6,52.3,29.65,South,182,9.0,13.0,74,0.00,,,0.00,Wunderground v.1.15,2013-03-10 14:03:00,
2013-03-10 09:05:00,60.5,52.2,29.65,SSE,151,15.0,15.0,74,0.00,,,0.00,Wunderground v.1.15,2013-03-10 14:05:00,
2013-03-10 09:08:00,60.7,52.4,29.65,South,186,10.0,15.0,74,0.00,,,0.00,Wunderground v.1.15,2013-03-10 14:08:00,
2013-03-10 09:10:00,60.7,52.4,29.65,SSE,165,11.0,16.0,74,0.00,,,0.00,Wunderground v.1.15,2013-03-10 14:10:00,
2013-03-10 09:13:00,60.8,52.5,29.65,SSE,164,14.0,18.0,74,0.00,,,0.00,Wunderground v.1.15,2013-03-10 14:13:00,
2013-03-10 09:14:00,60.8,52.5,29.65,South,173,13.0,19.0,74,0.00,,,0.00,Wunderground v.1.15,2013-03-10 14:14:00,
2013-03-10 09:15:00,60.8,52.5,29.65,South,181,8.0,19.0,74,0.00,,,0.00,Wunderground v.1.15,2013-03-10 14:15:00,
2013-03-10 09:16:00,60.8,52.5,29.65,SSE,164,8.0,19.0,74,0.00,,,0.00,Wunderground v.1.15,2013-03-10 14:16:00,
2013-03-10 09:18:00,60.8,52.5,29.65,South,170,10.0,19.0,74,0.00,,,0.00,Wunderground v.1.15,2013-03-10 14:18:00,
2013-03-10 09:19:00,60.8,52.5,29.65,South,173,11.0,19.0,74,0.00,,,0.00,Wunderground v.1.15,2013-03-10 14:19:00,
2013-03-10 09:21:00,60.8,52.5,29.66,South,169,7.0,19.0,74,0.00,,,0.00,Wunderground v.1.15,2013-03-10 14:21:00,
2013-03-10 09:23:00,60.8,52.5,29.65,South,171,10.0,14.0,74,0.00,,,0.00,Wunderground v.1.15,2013-03-10 14:23:00,
2013-03-10 09:24:00,60.8,52.5,29.65,South,186,8.0,14.0,74,0.00,,,0.00,Wunderground v.1.15,2013-03-10 14:24:00,
2013-03-10 09:26:00,60.7,52.4,29.65,South,171,12.0,14.0,74,0.00,,,0.00,Wunderground v.1.15,2013-03-10 14:26:00,
2013-03-10 09:28:00,60.7,52.4,29.65,SSE,167,9.0,16.0,74,0.00,,,0.00,Wunderground v.1.15,2013-03-10 14:28:00,
2013-03-10 09:30:00,60.7,52.4,29.65,South,187,7.0,16.0,74,0.00,,,0.00,Wunderground v.1.15,2013-03-10 14:30:00,
2013-03-10 09:31:00,60.7,52.4,29.65,SSW,198,7.0,16.0,74,0.00,,,0.00,Wunderground v.1.15,2013-03-10 14:31:00,
2013-03-10 09:32:00,60.7,52.4,29.65,South,178,9.0,16.0,74,0.00,,,0.00,Wunderground v.1.15,2013-03-10 14:32:00,
2013-03-10 09:34:00,60.7,52.4,29.65,SSW,196,16.0,21.0,74,0.00,,,0.00,Wunderground v.1.15,2013-03-10 14:34:00,
2013-03-10 09:35:00,60.7,52.4,29.65,South,175,20.0,21.0,74,0.00,,,0.00,Wunderground v.1.15,2013-03-10 14:35:00,
2013-03-10 09:37:00,60.8,52.5,29.65,South,169,11.0,21.0,74,0.00,,,0.00,Wunderground v.1.15,2013-03-10 14:37:00,
2013-03-10 09:39:00,60.7,52.4,29.65,South,186,8.0,21.0,74,0.00,,,0.00,Wunderground v.1.15,2013-03-10 14:39:00,
2013-03-10 09:40:00,60.7,52.4,29.65,South,180,9.0,21.0,74,0.00,,,0.00,Wunderground v.1.15,2013-03-10 14:40:00,
2013-03-10 09:42:00,60.7,52.4,29.65,South,180,8.0,21.0,74,0.00,,,0.00,Wunderground v.1.15,2013-03-10 14:42:00,
2013-03-10 09:45:00,60.7,52.4,29.65,SSE,163,8.0,16.0,74,0.00,,,0.00,Wunderground v.1.15,2013-03-10 14:45:00,
2013-03-10 09:46:00,60.7,52.4,29.65,South,179,13.0,16.0,74,0.00,,,0.00,Wunderground v.1.15,2013-03-10 14:46:00,
2013-03-10 09:47:00,60.7,52.7,29.65,South,170,8.0,16.0,75,0.00,,,0.00,Wunderground v.1.15,2013-03-10 14:47:00,
2013-03-10 09:49:00,60.7,52.7,29.65,South,190,8.0,16.0,75,0.00,,,0.00,Wunderground v.1.15,2013-03-10 14:49:00,
2013-03-10 09:50:00,60.7,52.7,29.65,South,172,7.0,16.0,75,0.00,,,0.00,Wunderground v.1.15,2013-03-10 14:50:00,
2013-03-10 09:51:00,60.7,52.7,29.65,SSW,209,7.0,16.0,75,0.00,,,0.00,Wunderground v.1.15,2013-03-10 14:51:00,
2013-03-10 09:52:00,60.8,52.8,29.65,SSE,159,8.0,11.0,75,0.00,,,0.00,Wunderground v.1.15,2013-03-10 14:52:00,
2013-03-10 09:54:00,60.8,52.8,29.65,SSE,165,8.0,13.0,75,0.00,,,0.00,Wunderground v.1.15,2013-03-10 14:54:00,
2013-03-10 09:55:00,60.8,52.8,29.65,SSE,158,15.0,20.0,75,0.00,,,0.00,Wunderground v.1.15,2013-03-10 14:55:00,
2013-03-10 09:56:00,60.9,52.9,29.65,SSW,206,8.0,20.0,75,0.00,,,0.00,Wunderground v.1.15,2013-03-10 14:56:00,
2013-03-10 09:58:00,60.9,52.9,29.65,SSE,151,8.0,20.0,75,0.00,,,0.00,Wunderground v.1.15,2013-03-10 14:58:00,
2013-03-10 10:00:00,61.0,53.0,29.65,SSW,198,9.0,20.0,75,0.00,,,0.00,Wunderground v.1.15,2013-03-10 15:00:00,
2013-03-10 10:01:00,61.0,53.0,29.65,South,179,15.0,20.0,75,0.00,,,0.00,Wunderground v.1.15,2013-03-10 15:01:00,
2013-03-10 10:03:00,61.1,53.1,29.64,South,183,5.0,10.0,75,0.00,,,0.00,Wunderground v.1.15,2013-03-10 15:03:00,
2013-03-10 10:05:00,61.1,53.5,29.64,SSE,159,10.0,13.0,76,0.00,,,0.00,Wunderground v.1.15,2013-03-10 15:05:00,
2013-03-10 10:06:00,61.2,53.6,29.64,South,190,15.0,18.0,76,0.00,,,0.00,Wunderground v.1.15,2013-03-10 15:06:00,
2013-03-10 10:07:00,61.2,53.6,29.64,SSE,167,10.0,18.0,76,0.00,,,0.00,Wunderground v.1.15,2013-03-10 15:07:00,
2013-03-10 10:08:00,61.2,53.6,29.64,SE,143,8.0,18.0,76,0.00,,,0.00,Wunderground v.1.15,2013-03-10 15:08:00,
2013-03-10 10:11:00,61.2,53.6,29.64,SSE,164,15.0,18.0,76,0.00,,,0.00,Wunderground v.1.15,2013-03-10 15:11:00,
2013-03-10 10:12:00,61.3,53.7,29.64,SSE,167,8.0,18.0,76,0.00,,,0.00,Wunderground v.1.15,2013-03-10 15:12:00,
2013-03-10 10:13:00,61.3,53.7,29.64,South,170,6.0,12.0,76,0.00,,,0.00,Wunderground v.1.15,2013-03-10 15:13:00,
2013-03-10 10:16:00,61.3,53.7,29.64,South,188,9.0,14.0,76,0.00,,,0.00,Wunderground v.1.15,2013-03-10 15:16:00,
2013-03-10 10:17:00,61.3,53.7,29.63,SSE,166,10.0,14.0,76,0.00,,,0.00,Wunderground v.1.15,2013-03-10 15:17:00,
2013-03-10 10:18:00,61.4,53.8,29.63,South,179,6.0,15.0,76,0.00,,,0.00,Wunderground v.1.15,2013-03-10 15:18:00,
2013-03-10 10:21:00,61.5,53.9,29.63,SSE,165,5.0,15.0,76,0.00,,,0.00,Wunderground v.1.15,2013-03-10 15:21:00,
2013-03-10 10:22:00,61.5,53.9,29.62,South,190,9.0,15.0,76,0.00,,,0.00,Wunderground v.1.15,2013-03-10 15:22:00,
2013-03-10 10:23:00,61.6,53.6,29.62,SSE,163,11.0,14.0,75,0.00,,,0.00,Wunderground v.1.15,2013-03-10 15:23:00,
2013-03-10 10:26:00,61.7,54.1,29.62,SSW,192,11.0,15.0,76,0.00,,,0.00,Wunderground v.1.15,2013-03-10 15:26:00,
2013-03-10 10:27:00,61.7,53.7,29.62,South,173,11.0,15.0,75,0.00,,,0.00,Wunderground v.1.15,2013-03-10 15:27:00,
2013-03-10 10:29:00,61.7,53.7,29.62,South,173,10.0,18.0,75,0.00,,,0.00,Wunderground v.1.15,2013-03-10 15:29:00,
2013-03-10 10:31:00,61.8,53.8,29.62,SSW,203,10.0,20.0,75,0.00,,,0.00,Wunderground v.1.15,2013-03-10 15:31:00,
2013-03-10 10:32:00,61.8,53.8,29.62,South,183,7.0,12.0,75,0.00,,,0.00,Wunderground v.1.15,2013-03-10 15:32:00,
2013-03-10 10:34:00,61.8,53.8,29.62,South,186,9.0,15.0,75,0.00,,,0.00,Wunderground v.1.15,2013-03-10 15:34:00,
2013-03-10 10:36:00,61.9,53.9,29.62,SSW,198,7.0,17.0,75,0.00,,,0.00,Wunderground v.1.15,2013-03-10 15:36:00,
2013-03-10 10:38:00,61.9,53.9,29.62,South,173,5.0,17.0,75,0.00,,,0.00,Wunderground v.1.15,2013-03-10 15:38:00,
2013-03-10 10:39:00,62.0,54.3,29.62,SE,146,11.0,17.0,76,0.00,,,0.00,Wunderground v.1.15,2013-03-10 15:39:00,
2013-03-10 10:42:00,62.0,54.0,29.62,South,184,9.0,10.0,75,0.00,,,0.00,Wunderground v.1.15,2013-03-10 15:42:00,
2013-03-10 10:44:00,62.1,54.1,29.62,South,182,7.0,11.0,75,0.00,,,0.00,Wunderground v.1.15,2013-03-10 15:44:00,
2013-03-10 10:48:00,62.3,54.3,29.62,South,182,6.0,15.0,75,0.00,,,0.00,Wunderground v.1.15,2013-03-10 15:48:00,
2013-03-10 10:49:00,62.5,54.5,29.62,SE,130,6.0,15.0,75,0.00,,,0.00,Wunderground v.1.15,2013-03-10 15:49:00,
2013-03-10 10:50:00,62.5,54.5,29.62,SSE,168,6.0,15.0,75,0.00,,,0.00,Wunderground v.1.15,2013-03-10 15:50:00,
2013-03-10 10:53:00,62.6,54.6,29.62,SSE,164,8.0,10.0,75,0.00,,,0.00,Wunderground v.1.15,2013-03-10 15:53:00,
2013-03-10 10:54:00,62.7,54.3,29.62,South,173,10.0,15.0,74,0.00,,,0.00,Wunderground v.1.15,2013-03-10 15:54:00,
2013-03-10 10:55:00,62.7,54.3,29.62,South,180,10.0,15.0,74,0.00,,,0.00,Wunderground v.1.15,2013-03-10 15:55:00,
2013-03-10 10:58:00,62.8,54.4,29.61,South,190,11.0,16.0,74,0.00,,,0.00,Wunderground v.1.15,2013-03-10 15:58:00,
2013-03-10 11:00:00,62.8,54.4,29.61,SSW,199,8.0,16.0,74,0.00,,,0.00,Wunderground v.1.15,2013-03-10 16:00:00,
2013-03-10 11:03:00,62.9,54.5,29.62,SSE,167,15.0,22.0,74,0.00,,,0.00,Wunderground v.1.15,2013-03-10 16:03:00,
2013-03-10 11:05:00,63.0,54.6,29.62,SSE,168,12.0,22.0,74,0.00,,,0.00,Wunderground v.1.15,2013-03-10 16:05:00,
2013-03-10 11:06:00,63.1,54.7,29.61,SE,145,15.0,22.0,74,0.00,,,0.00,Wunderground v.1.15,2013-03-10 16:06:00,
2013-03-10 11:08:00,63.2,54.8,29.62,SSW,198,8.0,22.0,74,0.00,,,0.00,Wunderground v.1.15,2013-03-10 16:08:00,
2013-03-10 11:10:00,63.4,55.0,29.61,SSE,157,3.0,22.0,74,0.00,,,0.00,Wunderground v.1.15,2013-03-10 16:10:00,
2013-03-10 11:12:00,63.5,55.1,29.61,SSW,207,15.0,22.0,74,0.00,,,0.00,Wunderground v.1.15,2013-03-10 16:12:00,
2013-03-10 11:13:00,63.5,55.1,29.61,South,179,13.0,19.0,74,0.00,,,0.00,Wunderground v.1.15,2013-03-10 16:13:00,
2013-03-10 11:15:00,63.5,55.1,29.60,South,190,15.0,19.0,74,0.00,,,0.00,Wunderground v.1.15,2013-03-10 16:15:00,
2013-03-10 11:17:00,63.7,55.3,29.60,SSW,194,19.0,19.0,74,0.00,,,0.00,Wunderground v.1.15,2013-03-10 16:17:00,
2013-03-10 11:18:00,63.7,55.3,29.60,South,170,16.0,22.0,74,0.00,,,0.00,Wunderground v.1.15,2013-03-10 16:18:00,
2013-03-10 11:21:00,63.6,55.2,29.60,SSW,206,15.0,23.0,74,0.00,,,0.00,Wunderground v.1.15,2013-03-10 16:21:00,
2013-03-10 11:22:00,63.6,55.2,29.60,South,184,10.0,23.0,74,0.00,,,0.00,Wunderground v.1.15,2013-03-10 16:22:00,
2013-03-10 11:23:00,63.6,55.2,29.60,South,174,10.0,15.0,74,0.00,,,0.00,Wunderground v.1.15,2013-03-10 16:23:00,
2013-03-10 11:26:00,63.8,55.4,29.60,South,179,19.0,24.0,74,0.00,,,0.00,Wunderground v.1.15,2013-03-10 16:26:00,
2013-03-10 11:27:00,63.8,55.4,29.60,SSE,153,9.0,24.0,74,0.00,,,0.00,Wunderground v.1.15,2013-03-10 16:27:00,
2013-03-10 11:29:00,63.8,55.4,29.61,South,183,17.0,24.0,74,0.00,,,0.00,Wunderground v.1.15,2013-03-10 16:29:00,
2013-03-10 11:31:00,63.7,55.3,29.61,SSW,203,13.0,24.0,74,0.00,,,0.00,Wunderground v.1.15,2013-03-10 16:31:00,
2013-03-10 11:32:00,63.6,55.2,29.61,South,177,9.0,13.0,74,0.00,,,0.00,Wunderground v.1.15,2013-03-10 16:32:00,
2013-03-10 11:33:00,63.7,55.3,29.61,South,169,9.0,13.0,74,0.00,,,0.00,Wunderground v.1.15,2013-03-10 16:33:00,
2013-03-10 11:34:00,63.6,55.5,29.61,South,186,9.0,13.0,75,0.00,,,0.00,Wunderground v.1.15,2013-03-10 16:34:00,
2013-03-10 11:37:00,63.7,55.6,29.60,SSW,200,7.0,19.0,75,0.00,,,0.00,Wunderground v.1.15,2013-03-10 16:37:00,
2013-03-10 11:38:00,63.7,55.6,29.60,SSE,159,10.0,19.0,75,0.00,,,0.00,Wunderground v.1.15,2013-03-10 16:38:00,
2013-03-10 11:39:00,63.8,55.7,29.60,South,186,10.0,19.0,75,0.00,,,0.00,Wunderground v.1.15,2013-03-10 16:39:00,
2013-03-10 11:43:00,64.0,55.5,29.61,South,179,11.0,21.0,74,0.00,,,0.00,Wunderground v.1.15,2013-03-10 16:43:00,
2013-03-10 11:44:00,64.0,55.5,29.61,SSW,202,11.0,21.0,74,0.00,,,0.00,Wunderground v.1.15,2013-03-10 16:44:00,
2013-03-10 11:48:00,64.2,55.7,29.61,South,177,16.0,23.0,74,0.00,,,0.00,Wunderground v.1.15,2013-03-10 16:48:00,
2013-03-10 11:50:00,64.2,55.7,29.61,South,188,15.0,23.0,74,0.00,,,0.00,Wunderground v.1.15,2013-03-10 16:50:00,
2013-03-10 11:53:00,64.3,55.8,29.61,SE,146,13.0,13.0,74,0.00,,,0.00,Wunderground v.1.15,2013-03-10 16:53:00,
2013-03-10 11:54:00,64.3,55.8,29.61,South,184,13.0,13.0,74,0.00,,,0.00,Wunderground v.1.15,2013-03-10 16:54:00,
2013-03-10 11:55:00,64.4,55.9,29.61,South,188,10.0,20.0,74,0.00,,,0.00,Wunderground v.1.15,2013-03-10 16:55:00,
2013-03-10 11:58:00,64.4,55.9,29.61,South,180,7.0,20.0,74,0.00,,,0.00,Wunderground v.1.15,2013-03-10 16:58:00,
2013-03-10 11:59:00,64.4,55.9,29.61,South,178,11.0,20.0,74,0.00,,,0.00,Wunderground v.1.15,2013-03-10 16:59:00,
2013-03-10 12:00:00,64.4,55.9,29.61,South,178,11.0,20.0,74,0.00,,,0.00,Wunderground v.1.15,2013-03-10 17:00:00,
2013-03-10 12:03:00,64.5,56.0,29.61,South,177,10.0,19.0,74,0.00,,,0.00,Wunderground v.1.15,2013-03-10 17:03:00,
2013-03-10 12:04:00,64.5,56.0,29.61,South,185,14.0,19.0,74,0.00,,,0.00,Wunderground v.1.15,2013-03-10 17:04:00,
2013-03-10 12:05:00,64.5,56.0,29.61,SSW,192,8.0,19.0,74,0.00,,,0.00,Wunderground v.1.15,2013-03-10 17:05:00,
2013-03-10 12:08:00,64.7,56.2,29.61,South,191,9.0,21.0,74,0.00,,,0.00,Wunderground v.1.15,2013-03-10 17:08:00,
2013-03-10 12:09:00,64.7,56.2,29.61,SSE,155,14.0,21.0,74,0.00,,,0.00,Wunderground v.1.15,2013-03-10 17:09:00,
2013-03-10 12:10:00,64.7,56.2,29.61,SSE,168,15.0,21.0,74,0.00,,,0.00,Wunderground v.1.15,2013-03-10 17:10:00,
2013-03-10 12:13:00,64.7,56.2,29.60,SSW,209,14.0,18.0,74,0.00,,,0.00,Wunderground v.1.15,2013-03-10 17:13:00,
2013-03-10 12:14:00,64.7,56.2,29.60,South,182,15.0,22.0,74,0.00,,,0.00,Wunderground v.1.15,2013-03-10 17:14:00,
2013-03-10 12:15:00,64.6,56.1,29.60,SSE,165,8.0,22.0,74,0.00,,,0.00,Wunderground v.1.15,2013-03-10 17:15:00,
2013-03-10 12:16:00,64.6,56.1,29.60,SSW,205,12.0,22.0,74,0.00,,,0.00,Wunderground v.1.15,2013-03-10 17:16:00,
2013-03-10 12:18:00,64.7,56.2,29.60,SSE,164,15.0,22.0,74,0.00,,,0.00,Wunderground v.1.15,2013-03-10 17:18:00,
2013-03-10 12:19:00,64.7,56.2,29.60,South,171,7.0,22.0,74,0.00,,,0.00,Wunderground v.1.15,2013-03-10 17:19:00,
2013-03-10 12:20:00,64.7,56.2,29.60,SSE,149,20.0,22.0,74,0.00,,,0.00,Wunderground v.1.15,2013-03-10 17:20:00,
2013-03-10 12:21:00,64.7,56.2,29.60,SSE,167,12.0,22.0,74,0.00,,,0.00,Wunderground v.1.15,2013-03-10 17:21:00,
2013-03-10 12:24:00,64.7,56.2,29.60,South,178,16.0,16.0,74,0.00,,,0.00,Wunderground v.1.15,2013-03-10 17:24:00,
2013-03-10 12:25:00,64.7,56.2,29.60,South,190,18.0,21.0,74,0.00,,,0.00,Wunderground v.1.15,2013-03-10 17:25:00,
2013-03-10 12:27:00,64.7,56.2,29.60,SSE,147,11.0,21.0,74,0.00,,,0.00,Wunderground v.1.15,2013-03-10 17:27:00,
2013-03-10 12:29:00,64.7,56.2,29.60,SSE,166,11.0,21.0,74,0.00,,,0.00,Wunderground v.1.15,2013-03-10 17:29:00,
2013-03-10 12:30:00,64.7,56.2,29.60,SSE,163,8.0,21.0,74,0.00,,,0.00,Wunderground v.1.15,2013-03-10 17:30:00,
2013-03-10 12:32:00,64.7,56.2,29.60,South,190,18.0,21.0,74,0.00,,,0.00,Wunderground v.1.15,2013-03-10 17:32:00,
2013-03-10 12:35:00,64.6,56.1,29.60,SSW,194,9.0,19.0,74,0.00,,,0.00,Wunderground v.1.15,2013-03-10 17:35:00,
2013-03-10 12:36:00,64.5,56.0,29.60,SE,142,13.0,19.0,74,0.00,,,0.00,Wunderground v.1.15,2013-03-10 17:36:00,
2013-03-10 12:37:00,64.5,56.0,29.59,South,177,7.0,19.0,74,0.00,,,0.00,Wunderground v.1.15,2013-03-10 17:37:00,
2013-03-10 12:40:00,64.4,56.3,29.59,SSE,148,11.0,19.0,75,0.00,,,0.00,Wunderground v.1.15,2013-03-10 17:40:00,
2013-03-10 12:42:00,64.4,56.3,29.59,South,188,14.0,19.0,75,0.00,,,0.00,Wunderground v.1.15,2013-03-10 17:42:00,
2013-03-10 12:45:00,64.3,56.2,29.59,South,177,7.0,21.0,75,0.00,,,0.00,Wunderground v.1.15,2013-03-10 17:45:00,
2013-03-10 12:47:00,64.4,56.3,29.59,SSW,208,10.0,21.0,75,0.00,,,0.00,Wunderground v.1.15,2013-03-10 17:47:00,
2013-03-10 12:48:00,64.4,56.3,29.59,SSE,156,9.0,21.0,75,0.00,,,0.00,Wunderground v.1.15,2013-03-10 17:48:00,
2013-03-10 12:50:00,64.4,56.3,29.59,South,182,9.0,21.0,75,0.00,,,0.00,Wunderground v.1.15,2013-03-10 17:50:00,
2013-03-10 12:51:00,64.4,56.3,29.59,SSW,203,9.0,21.0,75,0.00,,,0.00,Wunderground v.1.15,2013-03-10 17:51:00,
2013-03-10 12:53:00,64.4,56.3,29.59,SSE,155,13.0,13.0,75,0.00,,,0.00,Wunderground v.1.15,2013-03-10 17:53:00,
2013-03-10 12:55:00,64.4,56.7,29.58,SSE,157,8.0,15.0,76,0.00,,,0.00,Wunderground v.1.15,2013-03-10 17:55:00,
2013-03-10 12:56:00,64.4,56.7,29.58,SSW,200,8.0,15.0,76,0.00,,,0.00,Wunderground v.1.15,2013-03-10 17:56:00,
2013-03-10 12:58:00,64.4,56.7,29.59,SW,217,14.0,18.0,76,0.00,,,0.00,Wunderground v.1.15,2013-03-10 17:58:00,
2013-03-10 12:59:00,64.4,56.7,29.58,SSE,159,13.0,18.0,76,0.00,,,0.00,Wunderground v.1.15,2013-03-10 17:59:00,
2013-03-10 13:01:00,64.3,56.9,29.58,South,169,7.0,18.0,77,0.00,,,0.00,Wunderground v.1.15,2013-03-10 18:01:00,
2013-03-10 13:03:00,64.1,57.1,29.58,South,182,11.0,18.0,78,0.00,,,0.00,Wunderground v.1.15,2013-03-10 18:03:00,
2013-03-10 13:04:00,64.0,57.0,29.58,South,171,12.0,18.0,78,0.00,,,0.00,Wunderground v.1.15,2013-03-10 18:04:00,
2013-03-10 13:06:00,63.6,57.3,29.59,SSE,162,11.0,18.0,80,0.00,,,0.00,Wunderground v.1.15,2013-03-10 18:06:00,
2013-03-10 13:07:00,63.5,57.2,29.59,SSW,194,9.0,18.0,80,0.00,,,0.00,Wunderground v.1.15,2013-03-10 18:07:00,
2013-03-10 13:09:00,63.4,57.5,29.59,SE,140,12.0,18.0,81,0.00,,,0.00,Wunderground v.1.15,2013-03-10 18:09:00,
2013-03-10 13:12:00,63.1,57.2,29.59,South,185,4.0,18.0,81,0.00,,,0.00,Wunderground v.1.15,2013-03-10 18:12:00,
2013-03-10 13:14:00,62.9,57.3,29.58,SSW,203,8.0,13.0,82,0.00,,,0.00,Wunderground v.1.15,2013-03-10 18:14:00,
2013-03-10 13:15:00,62.9,57.3,29.59,SSE,159,9.0,13.0,82,0.00,,,0.00,Wunderground v.1.15,2013-03-10 18:15:00,
2013-03-10 13:17:00,62.9,57.7,29.58,SSE,157,11.0,15.0,83,0.00,,,0.00,Wunderground v.1.15,2013-03-10 18:17:00,
2013-03-10 13:19:00,62.9,57.3,29.58,South,175,7.0,15.0,82,0.00,,,0.00,Wunderground v.1.15,2013-03-10 18:19:00,
2013-03-10 13:21:00,62.9,57.3,29.58,SSE,155,8.0,15.0,82,0.00,,,0.01,Wunderground v.1.15,2013-03-10 18:21:00,
2013-03-10 13:23:00,62.9,57.3,29.58,SSE,164,12.0,18.0,82,0.00,,,0.01,Wunderground v.1.15,2013-03-10 18:23:00,
2013-03-10 13:24:00,63.0,57.4,29.58,SSW,192,8.0,18.0,82,0.00,,,0.01,Wunderground v.1.15,2013-03-10 18:24:00,
2013-03-10 13:25:00,63.0,57.4,29.58,SSE,163,6.0,18.0,82,0.00,,,0.01,Wunderground v.1.15,2013-03-10 18:25:00,
2013-03-10 13:26:00,63.1,57.5,29.58,SSW,192,7.0,18.0,82,0.00,,,0.01,Wunderground v.1.15,2013-03-10 18:26:00,
2013-03-10 13:28:00,63.2,57.6,29.58,South,173,11.0,18.0,82,0.00,,,0.01,Wunderground v.1.15,2013-03-10 18:28:00,
2013-03-10 13:29:00,63.2,57.6,29.58,South,189,11.0,18.0,82,0.00,,,0.01,Wunderground v.1.15,2013-03-10 18:29:00,
2013-03-10 13:30:00,63.2,57.6,29.57,SSW,196,14.0,18.0,82,0.00,,,0.01,Wunderground v.1.15,2013-03-10 18:30:00,
2013-03-10 13:31:00,63.2,57.6,29.57,South,180,10.0,18.0,82,0.00,,,0.01,Wunderground v.1.15,2013-03-10 18:31:00,
2013-03-10 13:33:00,63.2,57.6,29.57,SSE,162,5.0,14.0,82,0.00,,,0.01,Wunderground v.1.15,2013-03-10 18:33:00,
2013-03-10 13:35:00,63.2,57.3,29.57,SSW,192,8.0,14.0,81,0.00,,,0.01,Wunderground v.1.15,2013-03-10 18:35:00,
2013-03-10 13:37:00,63.2,57.3,29.57,SSW,205,7.0,16.0,81,0.00,,,0.01,Wunderground v.1.15,2013-03-10 18:37:00,
2013-03-10 13:38:00,63.2,57.3,29.57,South,171,7.0,16.0,81,0.00,,,0.01,Wunderground v.1.15,2013-03-10 18:38:00,
2013-03-10 13:40:00,63.2,57.6,29.57,South,179,8.0,16.0,82,0.00,,,0.01,Wunderground v.1.15,2013-03-10 18:40:00,
2013-03-10 13:42:00,63.2,57.3,29.56,South,179,6.0,8.0,81,0.00,,,0.01,Wunderground v.1.15,2013-03-10 18:42:00,
2013-03-10 13:44:00,63.3,57.4,29.56,South,184,12.0,14.0,81,0.00,,,0.01,Wunderground v.1.15,2013-03-10 18:44:00,
2013-03-10 13:45:00,63.4,57.5,29.56,South,177,8.0,14.0,81,0.00,,,0.01,Wunderground v.1.15,2013-03-10 18:45:00,
2013-03-10 13:48:00,63.5,57.6,29.57,South,171,9.0,14.0,81,0.00,,,0.01,Wunderground v.1.15,2013-03-10 18:48:00,
2013-03-10 13:49:00,63.5,57.6,29.57,South,176,9.0,14.0,81,0.00,,,0.01,Wunderground v.1.15,2013-03-10 18:49:00,
2013-03-10 13:50:00,63.5,57.6,29.56,South,185,3.0,14.0,81,0.00,,,0.01,Wunderground v.1.15,2013-03-10 18:50:00,
2013-03-10 13:53:00,63.5,57.2,29.56,South,175,7.0,10.0,80,0.00,,,0.01,Wunderground v.1.15,2013-03-10 18:53:00,
2013-03-10 13:54:00,63.6,57.3,29.57,South,183,9.0,17.0,80,0.00,,,0.01,Wunderground v.1.15,2013-03-10 18:54:00,
2013-03-10 13:55:00,63.6,57.3,29.56,SSE,164,8.0,17.0,80,0.00,,,0.01,Wunderground v.1.15,2013-03-10 18:55:00,
2013-03-10 13:57:00,63.8,57.5,29.56,South,176,4.0,17.0,80,0.00,,,0.01,Wunderground v.1.15,2013-03-10 18:57:00,
2013-03-10 13:58:00,63.8,57.5,29.56,South,182,9.0,17.0,80,0.00,,,0.01,Wunderground v.1.15,2013-03-10 18:58:00,
2013-03-10 13:59:00,63.8,57.5,29.56,SE,146,6.0,17.0,80,0.00,,,0.01,Wunderground v.1.15,2013-03-10 18:59:00,
2013-03-10 14:00:00,63.8,57.5,29.56,South,187,6.0,17.0,80,0.00,,,0.01,Wunderground v.1.15,2013-03-10 19:00:00,
2013-03-10 14:03:00,63.9,57.6,29.56,South,182,9.0,9.0,80,0.00,,,0.01,Wunderground v.1.15,2013-03-10 19:03:00,
2013-03-10 14:05:00,63.9,57.6,29.56,SSE,159,11.0,11.0,80,0.00,,,0.01,Wunderground v.1.15,2013-03-10 19:05:00,
2013-03-10 14:06:00,63.9,57.6,29.56,South,176,13.0,17.0,80,0.00,,,0.01,Wunderground v.1.15,2013-03-10 19:06:00,
2013-03-10 14:08:00,63.9,58.0,29.55,South,173,7.0,17.0,81,0.00,,,0.01,Wunderground v.1.15,2013-03-10 19:08:00,
2013-03-10 14:11:00,63.8,57.9,29.55,SSW,192,8.0,17.0,81,0.00,,,0.01,Wunderground v.1.15,2013-03-10 19:11:00,
2013-03-10 14:13:00,63.7,57.8,29.55,South,186,4.0,12.0,81,0.00,,,0.01,Wunderground v.1.15,2013-03-10 19:13:00,
2013-03-10 14:16:00,63.5,57.9,29.55,South,173,9.0,15.0,82,0.00,,,0.01,Wunderground v.1.15,2013-03-10 19:16:00,
2013-03-10 14:18:00,63.5,57.9,29.55,SSW,192,9.0,15.0,82,0.00,,,0.01,Wunderground v.1.15,2013-03-10 19:18:00,
2013-03-10 14:19:00,63.5,57.9,29.54,SSE,161,7.0,15.0,82,0.00,,,0.01,Wunderground v.1.15,2013-03-10 19:19:00,
2013-03-10 14:21:00,63.5,57.9,29.54,South,182,2.0,15.0,82,0.00,,,0.01,Wunderground v.1.15,2013-03-10 19:21:00,
2013-03-10 14:23:00,63.5,57.9,29.54,SSE,167,11.0,14.0,82,0.00,,,0.01,Wunderground v.1.15,2013-03-10 19:23:00,
2013-03-10 14:25:00,63.6,58.0,29.54,SSE,151,7.0,14.0,82,0.00,,,0.01,Wunderground v.1.15,2013-03-10 19:25:00,
2013-03-10 14:26:00,63.6,58.0,29.54,South,176,9.0,16.0,82,0.00,,,0.01,Wunderground v.1.15,2013-03-10 19:26:00,
2013-03-10 14:27:00,63.6,58.0,29.54,South,184,6.0,16.0,82,0.00,,,0.01,Wunderground v.1.15,2013-03-10 19:27:00,
2013-03-10 14:29:00,63.6,58.0,29.54,SSW,196,7.0,16.0,82,0.00,,,0.01,Wunderground v.1.15,2013-03-10 19:29:00,
2013-03-10 14:30:00,63.6,57.7,29.53,SSE,168,8.0,16.0,81,0.00,,,0.01,Wunderground v.1.15,2013-03-10 19:30:00,
2013-03-10 14:31:00,63.7,58.1,29.54,SSE,165,8.0,16.0,82,0.00,,,0.01,Wunderground v.1.15,2013-03-10 19:31:00,
2013-03-10 14:32:00,63.7,58.1,29.53,SSE,163,13.0,14.0,82,0.00,,,0.02,Wunderground v.1.15,2013-03-10 19:32:00,
2013-03-10 14:34:00,63.7,58.1,29.53,SSW,192,7.0,15.0,82,0.00,,,0.02,Wunderground v.1.15,2013-03-10 19:34:00,
2013-03-10 14:35:00,63.6,58.0,29.54,ESE,115,9.0,15.0,82,0.00,,,0.02,Wunderground v.1.15,2013-03-10 19:35:00,
2013-03-10 14:37:00,63.5,58.2,29.54,SSW,206,14.0,16.0,83,0.00,,,0.02,Wunderground v.1.15,2013-03-10 19:37:00,
2013-03-10 14:39:00,63.5,58.2,29.54,South,185,11.0,16.0,83,0.00,,,0.02,Wunderground v.1.15,2013-03-10 19:39:00,
2013-03-10 14:40:00,63.4,58.1,29.53,SSW,194,8.0,16.0,83,0.00,,,0.02,Wunderground v.1.15,2013-03-10 19:40:00,
2013-03-10 14:42:00,63.4,58.5,29.53,SSW,195,7.0,16.0,84,0.00,,,0.02,Wunderground v.1.15,2013-03-10 19:42:00,
2013-03-10 14:44:00,63.3,58.4,29.53,SSE,163,7.0,11.0,84,0.00,,,0.02,Wunderground v.1.15,2013-03-10 19:44:00,
2013-03-10 14:45:00,63.2,58.3,29.53,South,178,8.0,11.0,84,0.00,,,0.02,Wunderground v.1.15,2013-03-10 19:45:00,
2013-03-10 14:47:00,63.2,58.3,29.53,SSW,202,8.0,13.0,84,0.00,,,0.02,Wunderground v.1.15,2013-03-10 19:47:00,
2013-03-10 14:49:00,63.2,58.3,29.53,South,182,5.0,16.0,84,0.00,,,0.02,Wunderground v.1.15,2013-03-10 19:49:00,
2013-03-10 14:52:00,63.2,58.3,29.54,South,176,5.0,16.0,84,0.00,,,0.02,Wunderground v.1.15,2013-03-10 19:52:00,
2013-03-10 14:54:00,63.3,58.4,29.54,SSE,164,5.0,8.0,84,0.00,,,0.02,Wunderground v.1.15,2013-03-10 19:54:00,
2013-03-10 14:57:00,63.2,58.3,29.54,SSE,159,0.0,8.0,84,0.00,,,0.02,Wunderground v.1.15,2013-03-10 19:57:00,
2013-03-10 14:59:00,63.2,58.6,29.55,SSE,159,0.0,8.0,85,0.00,,,0.02,Wunderground v.1.15,2013-03-10 19:59:00,
2013-03-10 15:02:00,63.0,58.1,29.57,SW,233,1.0,7.0,84,0.00,,,0.02,Wunderground v.1.15,2013-03-10 20:02:00,
2013-03-10 15:03:00,63.0,58.1,29.57,NW,308,6.0,7.0,84,0.00,,,0.02,Wunderground v.1.15,2013-03-10 20:03:00,
2013-03-10 15:05:00,62.3,55.7,29.57,WNW,302,4.0,8.0,79,0.00,,,0.02,Wunderground v.1.15,2013-03-10 20:05:00,
2013-03-10 15:07:00,60.3,54.1,29.57,WNW,297,3.0,9.0,80,0.00,,,0.02,Wunderground v.1.15,2013-03-10 20:07:00,
2013-03-10 15:08:00,59.9,53.7,29.57,NW,315,3.0,9.0,80,0.00,,,0.02,Wunderground v.1.15,2013-03-10 20:08:00,
2013-03-10 15:10:00,59.0,53.2,29.56,WNW,292,1.0,9.0,81,0.82,,,0.04,Wunderground v.1.15,2013-03-10 20:10:00,
2013-03-10 15:13:00,57.8,53.0,29.59,SW,229,1.0,4.0,84,0.92,,,0.08,Wunderground v.1.15,2013-03-10 20:13:00,
2013-03-10 15:15:00,56.8,52.7,29.58,NW,317,6.0,6.0,86,1.24,,,0.16,Wunderground v.1.15,2013-03-10 20:15:00,
2013-03-10 15:18:00,55.9,52.1,29.58,NW,323,3.0,10.0,87,0.49,,,0.18,Wunderground v.1.15,2013-03-10 20:18:00,
2013-03-10 15:19:00,55.5,51.7,29.59,NW,314,3.0,10.0,87,0.39,,,0.18,Wunderground v.1.15,2013-03-10 20:19:00,
2013-03-10 15:20:00,55.0,51.5,29.59,NNW,331,6.0,10.0,88,0.31,,,0.19,Wunderground v.1.15,2013-03-10 20:20:00,
2013-03-10 15:21:00,54.8,51.3,29.59,NNW,331,3.0,10.0,88,1.32,,,0.21,Wunderground v.1.15,2013-03-10 20:21:00,
2013-03-10 15:23:00,54.4,51.2,29.59,NW,311,2.0,4.0,89,0.59,,,0.23,Wunderground v.1.15,2013-03-10 20:23:00,
2013-03-10 15:24:00,54.2,51.3,29.59,NW,323,6.0,6.0,90,0.33,,,0.23,Wunderground v.1.15,2013-03-10 20:24:00,
2013-03-10 15:26:00,53.9,51.0,29.59,North,355,3.0,7.0,90,0.44,,,0.25,Wunderground v.1.15,2013-03-10 20:26:00,
2013-03-10 15:27:00,53.7,50.8,29.59,WNW,297,7.0,7.0,90,0.44,,,0.25,Wunderground v.1.15,2013-03-10 20:27:00,
2013-03-10 15:29:00,53.4,50.8,29.58,NW,321,4.0,7.0,91,0.49,,,0.27,Wunderground v.1.15,2013-03-10 20:29:00,
2013-03-10 15:31:00,53.2,50.6,29.56,NW,321,2.0,7.0,91,0.39,,,0.29,Wunderground v.1.15,2013-03-10 20:31:00,
2013-03-10 15:32:00,53.1,50.5,29.57,NW,319,0.0,3.0,91,0.35,,,0.29,Wunderground v.1.15,2013-03-10 20:32:00,
2013-03-10 15:34:00,52.9,50.6,29.58,NW,308,6.0,6.0,92,0.18,,,0.30,Wunderground v.1.15,2013-03-10 20:34:00,
2013-03-10 15:35:00,52.9,50.6,29.58,NW,306,1.0,6.0,92,0.18,,,0.30,Wunderground v.1.15,2013-03-10 20:35:00,
2013-03-10 15:37:00,52.8,50.5,29.57,NW,321,1.0,6.0,92,0.18,,,0.30,Wunderground v.1.15,2013-03-10 20:37:00,
2013-03-10 15:39:00,52.7,50.4,29.58,NW,310,4.0,8.0,92,0.12,,,0.31,Wunderground v.1.15,2013-03-10 20:39:00,
2013-03-10 15:40:00,52.7,50.4,29.58,NW,308,0.0,8.0,92,0.12,,,0.31,Wunderground v.1.15,2013-03-10 20:40:00,
2013-03-10 15:42:00,52.6,50.3,29.58,NW,315,0.0,2.0,92,0.18,,,0.31,Wunderground v.1.15,2013-03-10 20:42:00,
2013-03-10 15:43:00,52.6,50.6,29.59,NW,315,0.0,2.0,93,0.18,,,0.32,Wunderground v.1.15,2013-03-10 20:43:00,
2013-03-10 15:45:00,52.6,50.6,29.60,NW,318,0.0,5.0,93,0.18,,,0.32,Wunderground v.1.15,2013-03-10 20:45:00,
2013-03-10 15:47:00,52.6,50.6,29.60,NW,319,3.0,5.0,93,0.11,,,0.32,Wunderground v.1.15,2013-03-10 20:47:00,
2013-03-10 15:48:00,52.6,50.6,29.60,NNW,327,0.0,5.0,93,0.11,,,0.33,Wunderground v.1.15,2013-03-10 20:48:00,
2013-03-10 15:51:00,52.6,50.6,29.62,NW,323,3.0,5.0,93,0.50,,,0.35,Wunderground v.1.15,2013-03-10 20:51:00,
2013-03-10 15:52:00,52.6,50.6,29.62,NW,318,2.0,5.0,93,0.82,,,0.37,Wunderground v.1.15,2013-03-10 20:52:00,
2013-03-10 15:53:00,52.6,50.6,29.62,NNW,328,7.0,7.0,93,0.82,,,0.37,Wunderground v.1.15,2013-03-10 20:53:00,
2013-03-10 15:54:00,52.6,50.6,29.62,NNW,348,4.0,7.0,93,0.61,,,0.38,Wunderground v.1.15,2013-03-10 20:54:00,
2013-03-10 15:56:00,52.5,50.5,29.60,North,360,2.0,7.0,93,0.51,,,0.40,Wunderground v.1.15,2013-03-10 20:56:00,
2013-03-10 15:57:00,52.5,50.5,29.59,NNW,333,1.0,7.0,93,0.48,,,0.41,Wunderground v.1.15,2013-03-10 20:57:00,
2013-03-10 15:58:00,52.5,50.5,29.59,NNW,333,0.0,7.0,93,0.48,,,0.41,Wunderground v.1.15,2013-03-10 20:58:00,
2013-03-10 15:59:00,52.5,50.5,29.59,NNW,333,0.0,7.0,93,0.60,,,0.42,Wunderground v.1.15,2013-03-10 20:59:00,
2013-03-10 16:01:00,52.4,50.4,29.59,NW,312,2.0,7.0,93,0.31,,,0.43,Wunderground v.1.15,2013-03-10 21:01:00,
2013-03-10 16:02:00,52.4,50.4,29.60,NW,320,4.0,7.0,93,0.22,,,0.44,Wunderground v.1.15,2013-03-10 21:02:00,
2013-03-10 16:03:00,52.4,50.4,29.60,NW,313,3.0,7.0,93,0.22,,,0.44,Wunderground v.1.15,2013-03-10 21:03:00,
2013-03-10 16:04:00,52.4,50.4,29.60,NW,316,5.0,7.0,93,0.22,,,0.44,Wunderground v.1.15,2013-03-10 21:04:00,
2013-03-10 16:07:00,52.3,50.3,29.61,NW,323,2.0,7.0,93,0.17,,,0.45,Wunderground v.1.15,2013-03-10 21:07:00,
2013-03-10 16:08:00,52.3,50.3,29.61,North,349,0.0,7.0,93,0.17,,,0.45,Wunderground v.1.15,2013-03-10 21:08:00,
2013-03-10 16:09:00,52.3,50.3,29.60,NNW,329,2.0,7.0,93,0.17,,,0.45,Wunderground v.1.15,2013-03-10 21:09:00,
2013-03-10 16:12:00,52.3,50.3,29.61,NNW,329,0.0,2.0,93,0.09,,,0.46,Wunderground v.1.15,2013-03-10 21:12:00,
2013-03-10 16:13:00,52.3,50.3,29.61,NNW,329,0.0,2.0,93,0.09,,,0.46,Wunderground v.1.15,2013-03-10 21:13:00,
2013-03-10 16:15:00,52.3,50.6,29.60,NNE,17,0.0,2.0,94,0.09,,,0.46,Wunderground v.1.15,2013-03-10 21:15:00,
2013-03-10 16:18:00,52.3,50.6,29.61,WNW,294,0.0,4.0,94,0.15,,,0.47,Wunderground v.1.15,2013-03-10 21:18:00,
2013-03-10 16:19:00,52.3,50.6,29.61,WNW,294,0.0,4.0,94,0.15,,,0.47,Wunderground v.1.15,2013-03-10 21:19:00,
2013-03-10 16:20:00,52.3,50.6,29.60,WNW,294,0.0,4.0,94,0.19,,,0.48,Wunderground v.1.15,2013-03-10 21:20:00,
2013-03-10 16:23:00,52.2,50.5,29.60,NW,305,0.0,0.0,94,0.43,,,0.50,Wunderground v.1.15,2013-03-10 21:23:00,
2013-03-10 16:24:00,52.2,50.5,29.59,NW,305,0.0,0.0,94,0.41,,,0.51,Wunderground v.1.15,2013-03-10 21:24:00,
2013-03-10 16:25:00,52.2,50.5,29.59,NW,305,0.0,0.0,94,0.30,,,0.52,Wunderground v.1.15,2013-03-10 21:25:00,
2013-03-10 16:29:00,52.2,50.5,29.58,NW,304,0.0,0.0,94,0.42,,,0.54,Wunderground v.1.15,2013-03-10 21:29:00,
2013-03-10 16:30:00,52.2,50.5,29.58,NW,304,0.0,0.0,94,0.38,,,0.54,Wunderground v.1.15,2013-03-10 21:30:00,
2013-03-10 16:32:00,52.1,50.4,29.58,NW,304,0.0,0.0,94,0.27,,,0.55,Wunderground v.1.15,2013-03-10 21:32:00,
2013-03-10 16:34:00,52.1,50.4,29.59,NW,304,0.0,0.0,94,0.21,,,0.56,Wunderground v.1.15,2013-03-10 21:34:00,
2013-03-10 16:35:00,52.1,50.4,29.59,NW,304,0.0,0.0,94,0.21,,,0.56,Wunderground v.1.15,2013-03-10 21:35:00,
2013-03-10 16:37:00,52.1,50.4,29.58,NW,304,0.0,0.0,94,0.23,,,0.57,Wunderground v.1.15,2013-03-10 21:37:00,
2013-03-10 16:39:00,52.1,50.4,29.58,NW,304,0.0,0.0,94,0.23,,,0.58,Wunderground v.1.15,2013-03-10 21:39:00,
2013-03-10 16:41:00,52.1,50.4,29.58,NW,304,0.0,0.0,94,0.49,,,0.59,Wunderground v.1.15,2013-03-10 21:41:00,
2013-03-10 16:43:00,52.1,50.4,29.59,NW,304,0.0,0.0,94,0.39,,,0.60,Wunderground v.1.15,2013-03-10 21:43:00,
2013-03-10 16:44:00,52.1,50.4,29.60,NW,304,0.0,0.0,94,0.32,,,0.61,Wunderground v.1.15,2013-03-10 21:44:00,
2013-03-10 16:45:00,52.1,50.4,29.60,NW,304,0.0,0.0,94,0.25,,,0.61,Wunderground v.1.15,2013-03-10 21:45:00,
2013-03-10 16:46:00,52.1,50.4,29.61,NW,304,0.0,0.0,94,0.17,,,0.61,Wunderground v.1.15,2013-03-10 21:46:00,
2013-03-10 16:48:00,52.1,50.4,29.61,NW,304,0.0,0.0,94,0.16,,,0.62,Wunderground v.1.15,2013-03-10 21:48:00,
2013-03-10 16:50:00,52.1,50.4,29.63,NW,304,0.0,0.0,94,0.25,,,0.63,Wunderground v.1.15,2013-03-10 21:50:00,
2013-03-10 16:52:00,52.2,50.5,29.62,NW,304,0.0,0.0,94,0.44,,,0.65,Wunderground v.1.15,2013-03-10 21:52:00,
2013-03-10 16:53:00,52.2,50.5,29.62,NW,304,0.0,0.0,94,0.55,,,0.66,Wunderground v.1.15,2013-03-10 21:53:00,
2013-03-10 16:55:00,52.2,50.5,29.59,NW,304,0.0,0.0,94,1.32,,,0.69,Wunderground v.1.15,2013-03-10 21:55:00,
2013-03-10 16:57:00,52.1,50.4,29.58,ENE,78,0.0,2.0,94,0.57,,,0.72,Wunderground v.1.15,2013-03-10 21:57:00,
2013-03-10 16:58:00,52.1,50.4,29.58,ENE,78,0.0,2.0,94,0.39,,,0.72,Wunderground v.1.15,2013-03-10 21:58:00,
2013-03-10 17:00:00,52.1,50.4,29.60,ENE,78,0.0,2.0,94,0.29,,,0.73,Wunderground v.1.15,2013-03-10 22:00:00,
2013-03-10 17:03:00,52.1,50.4,29.58,East,80,0.0,0.0,94,0.24,,,0.74,Wunderground v.1.15,2013-03-10 22:03:00,
2013-03-10 17:05:00,52.1,50.4,29.56,East,83,0.0,0.0,94,0.52,,,0.76,Wunderground v.1.15,2013-03-10 22:05:00,
2013-03-10 17:06:00,52.1,50.4,29.56,East,85,2.0,2.0,94,0.52,,,0.76,Wunderground v.1.15,2013-03-10 22:06:00,
2013-03-10 17:08:00,52.2,50.5,29.56,East,101,0.0,3.0,94,0.16,,,0.76,Wunderground v.1.15,2013-03-10 22:08:00,
2013-03-10 17:09:00,52.2,50.5,29.56,East,101,0.0,3.0,94,0.16,,,0.76,Wunderground v.1.15,2013-03-10 22:09:00,
2013-03-10 17:11:00,52.2,50.5,29.57,ENE,73,0.0,3.0,94,0.13,,,0.77,Wunderground v.1.15,2013-03-10 22:11:00,
2013-03-10 17:14:00,52.2,50.5,29.57,ENE,73,0.0,0.0,94,0.13,,,0.77,Wunderground v.1.15,2013-03-10 22:14:00,
2013-03-10 17:15:00,52.2,50.5,29.57,ENE,73,0.0,0.0,94,0.11,,,0.77,Wunderground v.1.15,2013-03-10 22:15:00,
2013-03-10 17:16:00,52.2,50.5,29.57,ENE,73,0.0,0.0,94,0.09,,,0.77,Wunderground v.1.15,2013-03-10 22:16:00,
2013-03-10 17:17:00,52.2,50.5,29.57,ENE,73,0.0,0.0,94,0.08,,,0.78,Wunderground v.1.15,2013-03-10 22:17:00,
2013-03-10 17:19:00,52.3,50.6,29.57,East,79,0.0,2.0,94,0.08,,,0.78,Wunderground v.1.15,2013-03-10 22:19:00,
2013-03-10 17:21:00,52.3,50.6,29.57,East,80,0.0,2.0,94,0.08,,,0.78,Wunderground v.1.15,2013-03-10 22:21:00,
2013-03-10 17:22:00,52.3,50.6,29.57,East,80,0.0,2.0,94,0.08,,,0.78,Wunderground v.1.15,2013-03-10 22:22:00,
2013-03-10 17:25:00,52.3,50.6,29.57,ENE,78,1.0,2.0,94,0.07,,,0.78,Wunderground v.1.15,2013-03-10 22:25:00,
2013-03-10 17:27:00,52.3,50.6,29.57,ENE,78,0.0,2.0,94,0.07,,,0.79,Wunderground v.1.15,2013-03-10 22:27:00,
2013-03-10 17:28:00,52.3,50.6,29.57,ESE,113,0.0,2.0,94,0.07,,,0.79,Wunderground v.1.15,2013-03-10 22:28:00,
2013-03-10 17:30:00,52.3,50.6,29.58,ESE,113,0.0,2.0,94,0.07,,,0.79,Wunderground v.1.15,2013-03-10 22:30:00,
2013-03-10 17:32:00,52.3,50.6,29.59,ESE,113,0.0,2.0,94,0.07,,,0.79,Wunderground v.1.15,2013-03-10 22:32:00,
2013-03-10 17:33:00,52.3,50.6,29.59,ESE,113,0.0,0.0,94,0.07,,,0.79,Wunderground v.1.15,2013-03-10 22:33:00,
2013-03-10 17:34:00,52.3,50.6,29.59,ESE,113,0.0,0.0,94,0.07,,,0.79,Wunderground v.1.15,2013-03-10 22:34:00,
2013-03-10 17:35:00,52.3,50.6,29.59,ESE,113,0.0,0.0,94,0.06,,,0.79,Wunderground v.1.15,2013-03-10 22:35:00,
2013-03-10 17:37:00,52.3,50.6,29.57,ESE,113,0.0,0.0,94,0.05,,,0.79,Wunderground v.1.15,2013-03-10 22:37:00,
2013-03-10 17:38:00,52.3,50.6,29.56,ESE,113,0.0,0.0,94,0.05,,,0.79,Wunderground v.1.15,2013-03-10 22:38:00,
2013-03-10 17:40:00,52.3,50.6,29.56,ESE,106,0.0,0.0,94,0.05,,,0.80,Wunderground v.1.15,2013-03-10 22:40:00,
2013-03-10 17:42:00,52.3,50.6,29.55,ENE,71,0.0,0.0,94,0.05,,,0.80,Wunderground v.1.15,2013-03-10 22:42:00,
2013-03-10 17:43:00,52.3,50.6,29.55,ENE,71,0.0,0.0,94,0.05,,,0.80,Wunderground v.1.15,2013-03-10 22:43:00,
2013-03-10 17:45:00,52.3,50.6,29.56,ENE,71,0.0,0.0,94,0.11,,,0.81,Wunderground v.1.15,2013-03-10 22:45:00,
2013-03-10 17:47:00,52.2,50.5,29.57,ENE,71,0.0,0.0,94,0.20,,,0.82,Wunderground v.1.15,2013-03-10 22:47:00,
2013-03-10 17:48:00,52.2,50.5,29.57,ENE,74,0.0,0.0,94,0.20,,,0.82,Wunderground v.1.15,2013-03-10 22:48:00,
2013-03-10 17:50:00,52.2,50.5,29.58,ESE,119,1.0,4.0,94,0.24,,,0.83,Wunderground v.1.15,2013-03-10 22:50:00,
2013-03-10 17:51:00,52.3,50.6,29.58,South,190,0.0,4.0,94,0.24,,,0.83,Wunderground v.1.15,2013-03-10 22:51:00,
2013-03-10 17:53:00,52.3,50.6,29.59,SSW,192,1.0,4.0,94,0.19,,,0.83,Wunderground v.1.15,2013-03-10 22:53:00,
2013-03-10 17:54:00,52.3,50.6,29.58,SSW,192,0.0,4.0,94,0.16,,,0.84,Wunderground v.1.15,2013-03-10 22:54:00,
2013-03-10 17:56:00,52.3,50.6,29.59,SSW,193,0.0,4.0,94,0.16,,,0.84,Wunderground v.1.15,2013-03-10 22:56:00,
2013-03-10 17:58:00,52.3,50.6,29.58,South,184,0.0,4.0,94,0.21,,,0.85,Wunderground v.1.15,2013-03-10 22:58:00,
2013-03-10 17:59:00,52.3,50.6,29.58,South,184,0.0,4.0,94,0.21,,,0.85,Wunderground v.1.15,2013-03-10 22:59:00,
2013-03-10 18:01:00,52.3,50.6,29.59,South,185,0.0,4.0,94,0.14,,,0.86,Wunderground v.1.15,2013-03-10 23:01:00,
2013-03-10 18:03:00,52.3,50.6,29.58,South,184,0.0,0.0,94,0.14,,,0.86,Wunderground v.1.15,2013-03-10 23:03:00,
2013-03-10 18:04:00,52.3,50.6,29.58,South,185,0.0,0.0,94,0.14,,,0.86,Wunderground v.1.15,2013-03-10 23:04:00,
2013-03-10 18:07:00,52.3,50.6,29.57,South,184,0.0,0.0,94,0.09,,,0.86,Wunderground v.1.15,2013-03-10 23:07:00,
2013-03-10 18:08:00,52.3,50.6,29.57,South,184,0.0,0.0,94,0.07,,,0.86,Wunderground v.1.15,2013-03-10 23:08:00,
2013-03-10 18:09:00,52.3,50.6,29.57,South,184,0.0,0.0,94,0.07,,,0.86,Wunderground v.1.15,2013-03-10 23:09:00,
2013-03-10 18:10:00,52.3,50.6,29.56,South,184,0.0,0.0,94,0.07,,,0.87,Wunderground v.1.15,2013-03-10 23:10:00,
2013-03-10 18:12:00,52.3,50.6,29.57,South,184,0.0,0.0,94,0.07,,,0.87,Wunderground v.1.15,2013-03-10 23:12:00,
2013-03-10 18:13:00,52.3,50.6,29.57,South,184,0.0,0.0,94,0.07,,,0.87,Wunderground v.1.15,2013-03-10 23:13:00,
2013-03-10 18:14:00,52.2,50.5,29.57,South,184,0.0,0.0,94,0.07,,,0.87,Wunderground v.1.15,2013-03-10 23:14:00,
2013-03-10 18:15:00,52.3,50.6,29.58,South,184,0.0,0.0,94,0.07,,,0.87,Wunderground v.1.15,2013-03-10 23:15:00,
2013-03-10 18:17:00,52.2,50.5,29.58,South,184,0.0,0.0,94,0.07,,,0.87,Wunderground v.1.15,2013-03-10 23:17:00,
2013-03-10 18:18:00,52.2,50.5,29.58,South,184,0.0,0.0,94,0.06,,,0.87,Wunderground v.1.15,2013-03-10 23:18:00,
2013-03-10 18:19:00,52.2,50.5,29.58,South,184,0.0,0.0,94,0.06,,,0.87,Wunderground v.1.15,2013-03-10 23:19:00,
2013-03-10 18:20:00,52.2,50.5,29.59,South,184,0.0,0.0,94,0.05,,,0.87,Wunderground v.1.15,2013-03-10 23:20:00,
2013-03-10 18:23:00,52.2,50.5,29.59,South,184,0.0,0.0,94,0.04,,,0.87,Wunderground v.1.15,2013-03-10 23:23:00,
2013-03-10 18:24:00,52.2,50.5,29.59,South,184,0.0,0.0,94,0.04,,,0.87,Wunderground v.1.15,2013-03-10 23:24:00,
2013-03-10 18:25:00,52.2,50.5,29.59,South,184,0.0,0.0,94,0.04,,,0.87,Wunderground v.1.15,2013-03-10 23:25:00,
2013-03-10 18:28:00,52.3,50.6,29.59,South,184,0.0,0.0,94,0.00,,,0.87,Wunderground v.1.15,2013-03-10 23:28:00,
2013-03-10 18:29:00,52.3,50.6,29.58,South,184,0.0,0.0,94,0.00,,,0.87,Wunderground v.1.15,2013-03-10 23:29:00,
2013-03-10 18:30:00,52.3,50.6,29.59,South,180,0.0,0.0,94,0.00,,,0.87,Wunderground v.1.15,2013-03-10 23:30:00,
2013-03-10 18:31:00,52.3,50.6,29.59,South,186,0.0,0.0,94,0.00,,,0.87,Wunderground v.1.15,2013-03-10 23:31:00,
2013-03-10 18:34:00,52.3,50.6,29.58,South,186,0.0,0.0,94,0.00,,,0.87,Wunderground v.1.15,2013-03-10 23:34:00,
2013-03-10 18:35:00,52.3,50.6,29.59,South,186,0.0,0.0,94,0.00,,,0.87,Wunderground v.1.15,2013-03-10 23:35:00,
2013-03-10 18:36:00,52.3,50.6,29.59,South,186,0.0,0.0,94,0.00,,,0.87,Wunderground v.1.15,2013-03-10 23:36:00,
2013-03-10 18:39:00,52.3,50.6,29.59,South,186,0.0,0.0,94,0.00,,,0.87,Wunderground v.1.15,2013-03-10 23:39:00,
2013-03-10 18:40:00,52.3,50.6,29.58,South,186,0.0,0.0,94,0.00,,,0.87,Wunderground v.1.15,2013-03-10 23:40:00,
2013-03-10 18:41:00,52.2,50.5,29.59,South,186,0.0,0.0,94,0.00,,,0.87,Wunderground v.1.15,2013-03-10 23:41:00,
2013-03-10 18:44:00,52.3,50.6,29.61,South,186,0.0,0.0,94,0.00,,,0.87,Wunderground v.1.15,2013-03-10 23:44:00,
2013-03-10 18:45:00,52.3,50.6,29.61,South,186,0.0,0.0,94,0.00,,,0.88,Wunderground v.1.15,2013-03-10 23:45:00,
2013-03-10 18:46:00,52.3,50.6,29.61,South,186,0.0,0.0,94,0.00,,,0.88,Wunderground v.1.15,2013-03-10 23:46:00,
2013-03-10 18:47:00,52.3,50.6,29.61,South,186,0.0,2.0,94,0.00,,,0.88,Wunderground v.1.15,2013-03-10 23:47:00,
2013-03-10 18:49:00,52.3,50.6,29.60,South,186,0.0,2.0,94,0.50,,,0.90,Wunderground v.1.15,2013-03-10 23:49:00,
2013-03-10 18:50:00,52.2,50.5,29.60,South,186,0.0,2.0,94,0.50,,,0.90,Wunderground v.1.15,2013-03-10 23:50:00,
2013-03-10 18:51:00,52.3,50.6,29.60,South,186,0.0,2.0,94,0.40,,,0.90,Wunderground v.1.15,2013-03-10 23:51:00,
2013-03-10 18:52:00,52.2,50.5,29.60,South,186,0.0,0.0,94,0.23,,,0.91,Wunderground v.1.15,2013-03-10 23:52:00,
2013-03-10 18:56:00,52.2,50.5,29.58,South,186,0.0,0.0,94,0.16,,,0.91,Wunderground v.1.15,2013-03-10 23:56:00,
2013-03-10 18:57:00,52.2,50.5,29.58,South,186,0.0,0.0,94,0.13,,,0.91,Wunderground v.1.15,2013-03-10 23:57:00,
2013-03-10 18:58:00,52.2,50.5,29.58,South,186,0.0,0.0,94,0.11,,,0.92,Wunderground v.1.15,2013-03-10 23:58:00,
2013-03-10 19:01:00,52.2,50.5,29.58,South,186,0.0,0.0,94,0.11,,,0.92,Wunderground v.1.15,2013-03-11 00:01:00,
2013-03-10 19:02:00,52.2,50.5,29.58,South,186,0.0,0.0,94,0.11,,,0.92,Wunderground v.1.15,2013-03-11 00:02:00,
2013-03-10 19:03:00,52.2,50.5,29.58,South,186,0.0,0.0,94,0.11,,,0.92,Wunderground v.1.15,2013-03-11 00:03:00,
2013-03-10 19:06:00,52.2,50.5,29.59,South,186,0.0,0.0,94,0.07,,,0.92,Wunderground v.1.15,2013-03-11 00:06:00,
2013-03-10 19:07:00,52.2,50.5,29.58,South,186,0.0,0.0,94,0.06,,,0.93,Wunderground v.1.15,2013-03-11 00:07:00,
2013-03-10 19:09:00,52.2,50.5,29.58,South,186,0.0,0.0,94,0.06,,,0.93,Wunderground v.1.15,2013-03-11 00:09:00,
2013-03-10 19:12:00,52.2,50.5,29.58,South,186,0.0,1.0,94,0.06,,,0.93,Wunderground v.1.15,2013-03-11 00:12:00,
2013-03-10 19:13:00,52.2,50.5,29.57,South,186,0.0,0.0,94,0.06,,,0.93,Wunderground v.1.15,2013-03-11 00:13:00,
2013-03-10 19:14:00,52.2,50.5,29.58,South,186,0.0,0.0,94,0.06,,,0.93,Wunderground v.1.15,2013-03-11 00:14:00,
2013-03-10 19:17:00,52.2,50.5,29.59,South,186,0.0,0.0,94,0.06,,,0.93,Wunderground v.1.15,2013-03-11 00:17:00,
2013-03-10 19:18:00,52.2,50.5,29.59,South,186,0.0,0.0,94,0.05,,,0.93,Wunderground v.1.15,2013-03-11 00:18:00,
2013-03-10 19:20:00,52.2,50.5,29.60,South,186,0.0,0.0,94,0.04,,,0.93,Wunderground v.1.15,2013-03-11 00:20:00,
2013-03-10 19:23:00,52.2,50.5,29.60,South,186,0.0,0.0,94,0.04,,,0.93,Wunderground v.1.15,2013-03-11 00:23:00,
2013-03-10 19:25:00,52.2,50.5,29.60,South,186,0.0,0.0,94,0.00,,,0.93,Wunderground v.1.15,2013-03-11 00:25:00,
2013-03-10 19:28:00,52.2,50.5,29.60,South,186,0.0,0.0,94,0.00,,,0.93,Wunderground v.1.15,2013-03-11 00:28:00,
2013-03-10 19:31:00,52.2,50.5,29.60,South,186,0.0,0.0,94,0.00,,,0.94,Wunderground v.1.15,2013-03-11 00:31:00,
2013-03-10 19:33:00,52.2,50.5,29.59,South,186,0.0,0.0,94,0.00,,,0.94,Wunderground v.1.15,2013-03-11 00:33:00,
2013-03-10 19:34:00,52.2,50.5,29.59,South,186,0.0,0.0,94,0.00,,,0.94,Wunderground v.1.15,2013-03-11 00:34:00,
2013-03-10 19:36:00,52.2,50.5,29.59,South,186,0.0,0.0,94,0.00,,,0.94,Wunderground v.1.15,2013-03-11 00:36:00,
2013-03-10 19:38:00,52.2,50.5,29.59,South,186,0.0,0.0,94,0.00,,,0.94,Wunderground v.1.15,2013-03-11 00:38:00,
2013-03-10 19:39:00,52.2,50.5,29.59,South,186,0.0,0.0,94,0.00,,,0.94,Wunderground v.1.15,2013-03-11 00:39:00,
2013-03-10 19:41:00,52.2,50.5,29.59,South,186,0.0,0.0,94,0.00,,,0.94,Wunderground v.1.15,2013-03-11 00:41:00,
2013-03-10 19:44:00,52.1,50.4,29.60,South,186,0.0,0.0,94,0.04,,,0.95,Wunderground v.1.15,2013-03-11 00:44:00,
2013-03-10 19:46:00,52.1,50.4,29.60,South,186,0.0,0.0,94,0.04,,,0.95,Wunderground v.1.15,2013-03-11 00:46:00,
2013-03-10 19:49:00,52.2,50.5,29.60,South,185,1.0,3.0,94,0.04,,,0.95,Wunderground v.1.15,2013-03-11 00:49:00,
2013-03-10 19:50:00,52.2,50.5,29.60,South,185,3.0,3.0,94,0.04,,,0.95,Wunderground v.1.15,2013-03-11 00:50:00,
2013-03-10 19:52:00,52.2,50.5,29.61,South,170,5.0,5.0,94,0.04,,,0.95,Wunderground v.1.15,2013-03-11 00:52:00,
2013-03-10 19:54:00,52.2,50.5,29.61,South,189,2.0,7.0,94,0.06,,,0.96,Wunderground v.1.15,2013-03-11 00:54:00,
2013-03-10 19:55:00,52.2,50.5,29.61,SSE,165,3.0,7.0,94,0.06,,,0.96,Wunderground v.1.15,2013-03-11 00:55:00,
2013-03-10 19:58:00,52.3,50.6,29.62,SSE,166,0.0,7.0,94,0.06,,,0.96,Wunderground v.1.15,2013-03-11 00:58:00,
2013-03-10 19:59:00,52.2,50.5,29.62,SSE,166,0.0,7.0,94,0.06,,,0.96,Wunderground v.1.15,2013-03-11 00:59:00,
2013-03-10 20:00:00,52.3,50.6,29.62,South,178,3.0,7.0,94,0.06,,,0.96,Wunderground v.1.15,2013-03-11 01:00:00,
2013-03-10 20:02:00,52.3,50.6,29.62,South,179,0.0,2.0,94,0.06,,,0.96,Wunderground v.1.15,2013-03-11 01:02:00,
2013-03-10 20:04:00,52.3,50.6,29.62,South,182,2.0,3.0,94,0.06,,,0.96,Wunderground v.1.15,2013-03-11 01:04:00,
2013-03-10 20:05:00,52.3,50.6,29.61,South,183,0.0,3.0,94,0.05,,,0.96,Wunderground v.1.15,2013-03-11 01:05:00,
2013-03-10 20:07:00,52.3,50.6,29.61,South,183,0.0,3.0,94,0.04,,,0.96,Wunderground v.1.15,2013-03-11 01:07:00,
2013-03-10 20:09:00,52.3,50.6,29.61,South,183,0.0,3.0,94,0.04,,,0.96,Wunderground v.1.15,2013-03-11 01:09:00,
2013-03-10 20:11:00,52.3,50.6,29.61,South,183,0.0,3.0,94,0.04,,,0.97,Wunderground v.1.15,2013-03-11 01:11:00,
2013-03-10 20:13:00,52.4,50.7,29.61,South,180,2.0,4.0,94,0.04,,,0.97,Wunderground v.1.15,2013-03-11 01:13:00,
2013-03-10 20:14:00,52.4,50.7,29.61,South,180,1.0,4.0,94,0.04,,,0.97,Wunderground v.1.15,2013-03-11 01:14:00,
2013-03-10 20:15:00,52.4,50.7,29.61,South,180,0.0,4.0,94,0.04,,,0.97,Wunderground v.1.15,2013-03-11 01:15:00,
2013-03-10 20:17:00,52.4,50.7,29.60,South,180,0.0,4.0,94,0.09,,,0.98,Wunderground v.1.15,2013-03-11 01:17:00,
2013-03-10 20:18:00,52.4,50.7,29.60,South,180,0.0,4.0,94,0.09,,,0.98,Wunderground v.1.15,2013-03-11 01:18:00,
2013-03-10 20:20:00,52.4,50.7,29.61,South,180,0.0,4.0,94,0.19,,,0.98,Wunderground v.1.15,2013-03-11 01:20:00,
2013-03-10 20:22:00,52.4,50.7,29.60,South,173,0.0,1.0,94,0.23,,,1.00,Wunderground v.1.15,2013-03-11 01:22:00,
2013-03-10 20:23:00,52.4,50.7,29.60,South,173,0.0,1.0,94,0.23,,,1.00,Wunderground v.1.15,2013-03-11 01:23:00,
2013-03-10 20:25:00,52.4,50.7,29.60,South,173,0.0,1.0,94,0.23,,,1.00,Wunderground v.1.15,2013-03-11 01:25:00,
2013-03-10 20:28:00,52.3,50.6,29.60,South,173,0.0,1.0,94,0.11,,,1.00,Wunderground v.1.15,2013-03-11 01:28:00,
2013-03-10 20:30:00,52.3,50.6,29.60,South,173,0.0,1.0,94,0.08,,,1.00,Wunderground v.1.15,2013-03-11 01:30:00,
2013-03-10 20:31:00,52.4,50.7,29.60,South,173,0.0,1.0,94,0.07,,,1.00,Wunderground v.1.15,2013-03-11 01:31:00,
2013-03-10 20:33:00,52.4,50.7,29.61,South,173,0.0,0.0,94,0.06,,,1.00,Wunderground v.1.15,2013-03-11 01:33:00,
2013-03-10 20:34:00,52.3,50.6,29.60,South,173,0.0,0.0,94,0.05,,,1.00,Wunderground v.1.15,2013-03-11 01:34:00,
2013-03-10 20:35:00,52.3,50.6,29.60,South,173,0.0,0.0,94,0.05,,,1.00,Wunderground v.1.15,2013-03-11 01:35:00,
2013-03-10 20:37:00,52.3,50.6,29.60,South,173,0.0,0.0,94,0.04,,,1.00,Wunderground v.1.15,2013-03-11 01:37:00,
2013-03-10 20:38:00,52.4,50.7,29.60,South,173,0.0,0.0,94,0.04,,,1.00,Wunderground v.1.15,2013-03-11 01:38:00,
2013-03-10 20:40:00,52.3,50.6,29.60,South,173,0.0,0.0,94,0.00,,,1.00,Wunderground v.1.15,2013-03-11 01:40:00,
2013-03-10 20:42:00,52.3,50.6,29.60,South,173,0.0,0.0,94,0.00,,,1.00,Wunderground v.1.15,2013-03-11 01:42:00,
2013-03-10 20:44:00,52.4,50.7,29.60,South,173,0.0,0.0,94,0.00,,,1.00,Wunderground v.1.15,2013-03-11 01:44:00,
2013-03-10 20:45:00,52.3,50.6,29.60,South,173,0.0,0.0,94,0.00,,,1.00,Wunderground v.1.15,2013-03-11 01:45:00,
2013-03-10 20:46:00,52.3,50.6,29.60,South,173,0.0,0.0,94,0.00,,,1.00,Wunderground v.1.15,2013-03-11 01:46:00,
2013-03-10 20:47:00,52.3,50.6,29.60,South,173,0.0,0.0,94,0.00,,,1.00,Wunderground v.1.15,2013-03-11 01:47:00,
2013-03-10 20:49:00,52.3,50.6,29.61,South,173,0.0,0.0,94,0.00,,,1.00,Wunderground v.1.15,2013-03-11 01:49:00,
2013-03-10 20:51:00,52.3,50.6,29.61,South,173,0.0,0.0,94,0.00,,,1.00,Wunderground v.1.15,2013-03-11 01:51:00,
2013-03-10 20:54:00,52.3,50.6,29.60,South,173,0.0,0.0,94,0.00,,,1.01,Wunderground v.1.15,2013-03-11 01:54:00,
2013-03-10 20:55:00,52.3,50.6,29.60,South,173,0.0,1.0,94,0.00,,,1.01,Wunderground v.1.15,2013-03-11 01:55:00,
2013-03-10 20:56:00,52.3,50.6,29.61,South,173,0.0,1.0,94,0.00,,,1.01,Wunderground v.1.15,2013-03-11 01:56:00,
2013-03-10 20:58:00,52.4,50.7,29.61,South,173,0.0,1.0,94,0.00,,,1.01,Wunderground v.1.15,2013-03-11 01:58:00,
2013-03-10 21:00:00,52.4,50.7,29.61,South,173,0.0,1.0,94,0.08,,,1.02,Wunderground v.1.15,2013-03-11 02:00:00,
2013-03-10 21:01:00,52.4,50.7,29.61,South,173,0.0,1.0,94,0.08,,,1.02,Wunderground v.1.15,2013-03-11 02:01:00,
2013-03-10 21:02:00,52.4,50.7,29.61,South,173,0.0,0.0,94,0.08,,,1.02,Wunderground v.1.15,2013-03-11 02:02:00,
2013-03-10 21:04:00,52.4,50.7,29.61,South,173,0.0,0.0,94,0.08,,,1.02,Wunderground v.1.15,2013-03-11 02:04:00,
2013-03-10 21:05:00,52.4,50.7,29.61,South,173,0.0,0.0,94,0.08,,,1.02,Wunderground v.1.15,2013-03-11 02:05:00,
2013-03-10 21:06:00,52.4,50.7,29.61,South,173,0.0,0.0,94,0.08,,,1.02,Wunderground v.1.15,2013-03-11 02:06:00,
2013-03-10 21:07:00,52.4,50.7,29.61,South,173,0.0,0.0,94,0.08,,,1.02,Wunderground v.1.15,2013-03-11 02:07:00,
2013-03-10 21:09:00,52.4,50.7,29.61,South,173,0.0,0.0,94,0.06,,,1.02,Wunderground v.1.15,2013-03-11 02:09:00,
2013-03-10 21:11:00,52.4,50.7,29.61,South,173,0.0,0.0,94,0.06,,,1.03,Wunderground v.1.15,2013-03-11 02:11:00,
2013-03-10 21:12:00,52.4,50.7,29.61,South,173,0.0,0.0,94,0.06,,,1.03,Wunderground v.1.15,2013-03-11 02:12:00,
2013-03-10 21:15:00,52.4,50.7,29.61,South,173,0.0,3.0,94,0.06,,,1.03,Wunderground v.1.15,2013-03-11 02:15:00,
2013-03-10 21:17:00,52.5,50.8,29.62,South,171,3.0,3.0,94,0.06,,,1.03,Wunderground v.1.15,2013-03-11 02:17:00,
2013-03-10 21:20:00,52.5,50.8,29.63,SSE,164,3.0,5.0,94,0.06,,,1.03,Wunderground v.1.15,2013-03-11 02:20:00,
2013-03-10 21:22:00,52.5,50.8,29.63,SSE,165,2.0,7.0,94,0.05,,,1.03,Wunderground v.1.15,2013-03-11 02:22:00,
2013-03-10 21:23:00,52.5,50.8,29.63,SSE,161,1.0,3.0,94,0.04,,,1.03,Wunderground v.1.15,2013-03-11 02:23:00,
2013-03-10 21:25:00,52.6,50.9,29.62,SSE,161,0.0,3.0,94,0.04,,,1.03,Wunderground v.1.15,2013-03-11 02:25:00,
2013-03-10 21:27:00,52.5,50.8,29.62,SSE,161,2.0,4.0,94,0.00,,,1.03,Wunderground v.1.15,2013-03-11 02:27:00,
2013-03-10 21:28:00,52.6,50.9,29.62,SSE,161,3.0,4.0,94,0.00,,,1.03,Wunderground v.1.15,2013-03-11 02:28:00,
2013-03-10 21:30:00,52.6,50.9,29.63,South,173,3.0,5.0,94,0.00,,,1.03,Wunderground v.1.15,2013-03-11 02:30:00,
2013-03-10 21:33:00,52.6,50.9,29.62,South,190,2.0,4.0,94,0.00,,,1.03,Wunderground v.1.15,2013-03-11 02:33:00,
2013-03-10 21:34:00,52.6,50.9,29.62,SSW,201,3.0,6.0,94,0.00,,,1.03,Wunderground v.1.15,2013-03-11 02:34:00,
2013-03-10 21:35:00,52.6,50.9,29.61,South,171,2.0,6.0,94,0.00,,,1.03,Wunderground v.1.15,2013-03-11 02:35:00,
2013-03-10 21:38:00,52.6,50.9,29.62,SSE,166,3.0,7.0,94,0.00,,,1.03,Wunderground v.1.15,2013-03-11 02:38:00,
2013-03-10 21:39:00,52.6,50.9,29.62,SSE,157,5.0,7.0,94,0.00,,,1.03,Wunderground v.1.15,2013-03-11 02:39:00,
2013-03-10 21:41:00,52.6,50.9,29.62,SSE,160,3.0,7.0,94,0.00,,,1.03,Wunderground v.1.15,2013-03-11 02:41:00,
2013-03-10 21:43:00,52.6,50.9,29.63,South,180,0.0,6.0,94,0.00,,,1.03,Wunderground v.1.15,2013-03-11 02:43:00,
2013-03-10 21:44:00,52.6,50.9,29.62,South,181,0.0,6.0,94,0.00,,,1.03,Wunderground v.1.15,2013-03-11 02:44:00,
2013-03-10 21:46:00,52.7,51.0,29.62,South,180,0.0,6.0,94,0.00,,,1.03,Wunderground v.1.15,2013-03-11 02:46:00,
2013-03-10 21:48:00,52.6,50.9,29.61,South,181,0.0,6.0,94,0.00,,,1.03,Wunderground v.1.15,2013-03-11 02:48:00,
2013-03-10 21:49:00,52.6,50.9,29.61,South,180,0.0,6.0,94,0.00,,,1.03,Wunderground v.1.15,2013-03-11 02:49:00,
2013-03-10 21:52:00,52.6,50.9,29.62,South,181,0.0,6.0,94,0.00,,,1.03,Wunderground v.1.15,2013-03-11 02:52:00,
2013-03-10 21:53:00,52.6,50.9,29.61,South,180,0.0,0.0,94,0.00,,,1.03,Wunderground v.1.15,2013-03-11 02:53:00,
2013-03-10 21:55:00,52.6,50.9,29.61,South,181,0.0,0.0,94,0.00,,,1.03,Wunderground v.1.15,2013-03-11 02:55:00,
2013-03-10 21:57:00,52.6,50.9,29.62,South,181,0.0,0.0,94,0.00,,,1.03,Wunderground v.1.15,2013-03-11 02:57:00,
2013-03-10 21:58:00,52.6,50.9,29.62,South,180,0.0,0.0,94,0.00,,,1.03,Wunderground v.1.15,2013-03-11 02:58:00,
2013-03-10 22:02:00,52.6,50.9,29.62,South,181,0.0,0.0,94,0.00,,,1.03,Wunderground v.1.15,2013-03-11 03:02:00,
2013-03-10 22:03:00,52.6,50.9,29.62,South,181,0.0,0.0,94,0.00,,,1.03,Wunderground v.1.15,2013-03-11 03:03:00,
2013-03-10 22:04:00,52.6,50.9,29.62,South,181,0.0,0.0,94,0.00,,,1.03,Wunderground v.1.15,2013-03-11 03:04:00,
2013-03-10 22:07:00,52.6,50.9,29.62,South,181,0.0,0.0,94,0.00,,,1.03,Wunderground v.1.15,2013-03-11 03:07:00,
2013-03-10 22:08:00,52.5,50.8,29.61,South,181,0.0,0.0,94,0.00,,,1.03,Wunderground v.1.15,2013-03-11 03:08:00,
2013-03-10 22:09:00,52.6,50.9,29.61,South,180,0.0,0.0,94,0.00,,,1.03,Wunderground v.1.15,2013-03-11 03:09:00,
2013-03-10 22:13:00,52.6,50.9,29.62,South,181,0.0,0.0,94,0.00,,,1.03,Wunderground v.1.15,2013-03-11 03:13:00,
2013-03-10 22:14:00,52.6,50.9,29.62,South,181,0.0,0.0,94,0.00,,,1.03,Wunderground v.1.15,2013-03-11 03:14:00,
2013-03-10 22:19:00,52.5,50.8,29.63,South,180,0.0,0.0,94,0.00,,,1.03,Wunderground v.1.15,2013-03-11 03:19:00,
2013-03-10 22:20:00,52.5,50.8,29.63,South,181,0.0,2.0,94,0.00,,,1.03,Wunderground v.1.15,2013-03-11 03:20:00,
2013-03-10 22:24:00,52.5,50.8,29.64,South,181,0.0,0.0,94,0.00,,,1.03,Wunderground v.1.15,2013-03-11 03:24:00,
2013-03-10 22:25:00,52.5,50.8,29.64,South,180,0.0,0.0,94,0.00,,,1.03,Wunderground v.1.15,2013-03-11 03:25:00,
2013-03-10 22:29:00,52.5,50.8,29.61,South,180,0.0,0.0,94,0.00,,,1.03,Wunderground v.1.15,2013-03-11 03:29:00,
2013-03-10 22:30:00,52.5,50.8,29.61,South,181,0.0,0.0,94,0.00,,,1.03,Wunderground v.1.15,2013-03-11 03:30:00,
2013-03-10 22:34:00,52.5,50.8,29.61,South,181,0.0,0.0,94,0.00,,,1.03,Wunderground v.1.15,2013-03-11 03:34:00,
2013-03-10 22:35:00,52.5,50.8,29.61,South,180,0.0,0.0,94,0.00,,,1.03,Wunderground v.1.15,2013-03-11 03:35:00,
2013-03-10 22:40:00,52.5,50.8,29.62,South,180,0.0,0.0,94,0.00,,,1.03,Wunderground v.1.15,2013-03-11 03:40:00,
2013-03-10 22:41:00,52.5,50.8,29.62,South,181,0.0,0.0,94,0.00,,,1.03,Wunderground v.1.15,2013-03-11 03:41:00,
2013-03-10 22:45:00,52.6,50.9,29.62,South,181,0.0,2.0,94,0.00,,,1.03,Wunderground v.1.15,2013-03-11 03:45:00,
2013-03-10 22:46:00,52.6,50.9,29.62,South,180,0.0,2.0,94,0.00,,,1.03,Wunderground v.1.15,2013-03-11 03:46:00,
2013-03-10 22:50:00,52.6,50.9,29.61,South,180,0.0,2.0,94,0.00,,,1.03,Wunderground v.1.15,2013-03-11 03:50:00,
2013-03-10 22:51:00,52.6,50.9,29.61,South,181,0.0,2.0,94,0.00,,,1.03,Wunderground v.1.15,2013-03-11 03:51:00,
2013-03-10 22:52:00,52.6,50.9,29.61,South,181,0.0,2.0,94,0.00,,,1.03,Wunderground v.1.15,2013-03-11 03:52:00,
2013-03-10 22:55:00,52.6,50.9,29.62,South,180,1.0,1.0,94,0.00,,,1.03,Wunderground v.1.15,2013-03-11 03:55:00,
2013-03-10 22:57:00,52.6,50.9,29.61,South,181,0.0,1.0,94,0.00,,,1.03,Wunderground v.1.15,2013-03-11 03:57:00,
2013-03-10 23:00:00,52.6,50.9,29.61,South,180,0.0,1.0,94,0.00,,,1.03,Wunderground v.1.15,2013-03-11 04:00:00,
2013-03-10 23:05:00,52.5,50.8,29.61,South,181,0.0,0.0,94,0.00,,,1.03,Wunderground v.1.15,2013-03-11 04:05:00,
2013-03-10 23:10:00,52.5,50.8,29.61,South,181,0.0,0.0,94,0.00,,,1.03,Wunderground v.1.15,2013-03-11 04:10:00,
2013-03-10 23:15:00,52.5,50.8,29.61,South,181,0.0,0.0,94,0.00,,,1.03,Wunderground v.1.15,2013-03-11 04:15:00,
2013-03-10 23:16:00,52.5,50.8,29.61,South,181,0.0,0.0,94,0.00,,,1.03,Wunderground v.1.15,2013-03-11 04:16:00,
2013-03-10 23:20:00,52.5,50.8,29.62,South,181,0.0,0.0,94,0.00,,,1.03,Wunderground v.1.15,2013-03-11 04:20:00,
2013-03-10 23:21:00,52.5,50.8,29.62,South,181,0.0,0.0,94,0.00,,,1.03,Wunderground v.1.15,2013-03-11 04:21:00,
2013-03-10 23:25:00,52.4,50.7,29.62,South,181,0.0,0.0,94,0.00,,,1.03,Wunderground v.1.15,2013-03-11 04:25:00,
2013-03-10 23:26:00,52.5,50.8,29.62,South,181,2.0,3.0,94,0.00,,,1.03,Wunderground v.1.15,2013-03-11 04:26:00,
2013-03-10 23:30:00,52.5,50.8,29.62,South,181,0.0,3.0,94,0.00,,,1.03,Wunderground v.1.15,2013-03-11 04:30:00,
2013-03-10 23:31:00,52.5,50.8,29.62,South,181,0.0,3.0,94,0.00,,,1.03,Wunderground v.1.15,2013-03-11 04:31:00,
2013-03-10 23:32:00,52.5,50.8,29.62,South,181,0.0,3.0,94,0.00,,,1.03,Wunderground v.1.15,2013-03-11 04:32:00,
2013-03-10 23:35:00,52.5,50.8,29.62,South,181,0.0,0.0,94,0.00,,,1.03,Wunderground v.1.15,2013-03-11 04:35:00,
2013-03-10 23:37:00,52.5,50.8,29.61,South,180,0.0,0.0,94,0.00,,,1.03,Wunderground v.1.15,2013-03-11 04:37:00,
2013-03-10 23:38:00,52.5,50.8,29.61,South,181,0.0,0.0,94,0.00,,,1.03,Wunderground v.1.15,2013-03-11 04:38:00,
2013-03-10 23:42:00,52.5,50.8,29.62,South,181,2.0,2.0,94,0.00,,,1.03,Wunderground v.1.15,2013-03-11 04:42:00,
2013-03-10 23:43:00,52.5,50.8,29.63,South,181,0.0,2.0,94,0.00,,,1.03,Wunderground v.1.15,2013-03-11 04:43:00,
2013-03-10 23:47:00,52.5,51.1,29.63,South,181,0.0,2.0,95,0.00,,,1.03,Wunderground v.1.15,2013-03-11 04:47:00,
2013-03-10 23:48:00,52.5,50.8,29.64,South,181,0.0,2.0,94,0.00,,,1.03,Wunderground v.1.15,2013-03-11 04:48:00,
2013-03-10 23:52:00,51.8,50.4,29.64,NW,307,2.0,4.0,95,0.00,,,1.03,Wunderground v.1.15,2013-03-11 04:52:00,
2013-03-10 23:53:00,51.5,50.1,29.64,NW,306,4.0,4.0,95,0.00,,,1.03,Wunderground v.1.15,2013-03-11 04:53:00,
2013-03-10 23:58:00,50.5,48.8,29.63,WNW,303,0.0,4.0,94,0.00,,,1.03,Wunderground v.1.15,2013-03-11 04:58:00,